GFSFLT2_700_spd_018.txt.gz
Wind_Speed
5 4 7 8 5 2 2 2 4 7 8 9 10 11 13 15 17 18 19 20 21 22 22 21 19 18 17 17 16 17 17 16
4 6 7 4 2 2 3 4 5 5 6 9 11 11 11 14 16 18 19 20 21 23 23 22 20 18 15 14 14 14 14 16
5 6 4 3 3 3 4 5 5 8 9 10 12 16 18 19 18 20 21 21 22 23 23 21 18 17 17 15 14 13 13 13
5 6 4 5 3 4 4 6 7 8 10 13 16 20 22 22 22 21 21 23 23 21 20 19 17 16 17 17 16 14 14 12
11 13 8 7 4 2 1 3 5 8 13 17 18 20 23 24 24 23 23 24 20 20 21 21 22 22 21 20 18 18 19 18
10 13 12 12 7 5 5 6 8 11 15 18 21 22 25 26 26 25 25 25 22 23 24 24 25 26 25 24 21 20 20 22
7 7 8 8 8 11 13 14 15 15 16 17 19 22 24 29 30 28 29 27 24 26 29 28 25 24 26 26 26 27 27 27
12 14 11 12 8 10 13 20 20 18 18 21 23 25 26 33 32 30 29 28 27 31 33 33 32 32 29 30 30 31 31 32
13 12 6 13 17 13 11 21 24 23 24 25 27 28 30 34 34 36 35 35 36 38 39 41 40 39 42 38 35 34 33 34
13 15 18 18 9 12 19 17 20 25 28 32 32 31 34 35 35 36 36 39 44 44 46 46 46 43 41 40 37 35 34 35
17 18 17 14 12 18 20 20 23 26 30 33 32 36 37 36 35 38 41 44 44 42 43 46 43 42 43 39 36 35 36 36
20 20 20 18 19 19 19 21 24 28 30 31 32 35 34 34 37 42 49 45 45 45 42 41 42 44 46 44 42 40 38 39
21 23 25 18 19 18 18 21 26 29 33 34 33 33 37 41 48 47 47 47 49 50 49 47 48 46 50 49 47 42 42 42
24 18 14 15 16 18 21 25 29 30 33 35 39 40 40 44 44 45 49 51 50 48 47 47 46 46 49 50 53 49 45 45
12 11 12 14 17 20 22 24 26 30 35 36 37 39 43 47 50 53 51 48 47 46 45 44 45 45 45 48 51 53 54 49
13 16 19 22 24 25 25 27 30 32 33 35 37 42 47 50 50 49 48 47 45 45 45 45 46 46 46 45 47 49 53 59
22 23 22 22 22 23 28 33 36 36 37 42 46 48 50 52 52 50 48 48 49 49 48 47 47 48 49 48 48 48 47 49
25 26 24 29 34 37 39 41 44 47 47 45 50 46 57 55 52 48 48 47 46 47 49 52 52 52 50 48 46 45 45 42
32 33 34 36 41 44 44 45 47 50 44 48 44 54 59 50 44 45 45 48 48 49 50 50 52 49 45 43 40 39 38 40
28 30 32 37 44 44 46 48 49 45 48 52 53 55 48 44 42 45 47 48 49 47 46 48 46 45 42 41 41 37 34 32

GFSFLT2_700_spd_021.txt.gz
Wind_Speed
9 6 4 6 7 2 1 2 4 5 7 10 13 14 15 15 16 16 17 18 20 21 20 19 18 16 14 13 11 11 11 11
5 4 5 6 3 1 2 4 5 7 9 12 12 13 15 16 17 17 17 19 21 22 21 19 18 18 16 14 13 11 10 10
5 5 5 2 1 2 3 4 6 7 7 9 10 14 17 21 22 22 23 22 25 22 20 19 17 16 18 18 16 14 12 10
4 3 1 2 3 2 3 4 4 4 5 9 13 17 19 21 24 24 23 23 24 22 21 23 24 23 21 21 20 18 16 15
7 7 7 4 3 2 2 3 3 7 10 13 16 19 21 23 25 27 27 25 24 23 22 24 25 26 25 24 25 22 20 20
2 9 6 4 3 1 3 5 8 13 16 17 20 21 21 22 25 30 28 26 26 24 24 26 27 27 27 27 29 30 30 27
8 9 8 5 6 7 6 9 12 17 18 21 23 24 23 23 27 29 30 29 29 29 29 32 32 33 34 32 31 33 35 36
7 8 8 7 12 17 10 8 19 17 18 20 21 22 24 26 31 33 34 32 32 33 36 39 39 40 39 38 38 39 39 39
7 8 8 4 14 15 12 14 18 16 17 20 21 23 26 28 36 37 36 36 38 40 42 43 42 43 42 41 38 37 38 39
15 15 10 9 14 12 13 19 18 16 20 23 25 28 31 32 39 38 36 39 40 46 47 44 45 43 41 39 39 37 38 39
22 19 18 13 9 15 15 18 22 23 24 28 32 32 34 39 39 38 39 41 47 51 50 53 49 48 48 46 43 41 42 43
26 22 21 20 19 14 14 20 23 24 27 30 32 35 36 34 35 42 45 47 52 53 54 53 54 57 56 54 50 45 44 46
20 21 23 13 12 13 17 20 22 26 29 30 33 32 36 41 40 45 48 52 55 56 58 56 53 52 53 52 49 47 45 46
22 23 18 13 14 16 17 19 25 26 27 32 34 37 38 41 44 47 50 54 55 53 51 50 50 50 52 52 55 53 51 48
16 12 12 13 14 15 17 20 23 25 27 29 34 37 40 44 47 51 53 53 55 52 48 48 48 46 45 47 50 54 56 51
11 12 14 12 10 13 16 23 28 31 34 37 41 43 44 48 52 49 47 56 55 49 47 47 47 49 49 48 48 49 54 62
15 16 17 18 21 25 31 37 39 40 42 46 46 46 50 47 50 54 64 56 52 50 47 48 51 51 51 50 48 50 52 53
16 24 28 31 33 35 38 41 42 45 48 50 47 51 53 57 56 55 55 47 42 41 43 43 44 44 44 48 51 55 60 53
22 27 30 34 37 38 41 42 45 46 48 50 50 49 48 49 44 42 43 47 46 47 42 41 44 47 47 45 45 47 48 45
24 28 29 36 39 42 43 45 47 49 48 48 47 47 44 45 46 48 48 49 40 44 40 40 39 45 44 39 39 39 38 35

GFSFLT2_700_spd_024.txt.gz
Wind_Speed
10 8 5 3 5 3 3 4 5 6 8 10 10 12 13 15 16 16 16 17 19 21 20 20 19 19 17 15 13 13 12 12
9 5 3 4 2 3 4 5 7 8 8 8 8 10 13 15 18 19 20 20 21 20 18 18 19 19 19 17 15 14 14 12
6 5 3 2 3 5 5 8 7 6 5 5 8 12 15 17 18 20 21 22 22 22 20 18 20 22 20 18 18 16 14 14
7 7 5 6 7 6 7 7 6 4 5 9 13 16 18 19 19 21 23 24 22 22 21 19 20 23 25 24 21 19 18 17
6 6 7 8 8 8 6 4 2 4 8 12 15 17 18 18 20 21 24 26 25 23 22 22 23 26 30 30 29 28 26 23
10 8 8 7 7 6 2 1 3 8 11 13 14 16 18 20 21 21 24 28 29 27 26 25 27 29 31 32 35 34 33 32
9 9 8 7 6 3 2 4 5 12 13 14 15 17 18 21 23 24 26 30 30 30 31 33 34 34 33 33 36 36 36 35
2 4 4 4 1 3 5 6 9 14 15 15 17 18 19 23 29 29 30 34 34 34 38 37 40 39 38 40 40 38 36 35
5 10 8 9 8 4 3 6 16 17 16 17 19 20 23 27 30 30 33 34 35 40 43 44 45 45 46 44 42 39 41 42
15 18 14 14 13 12 15 15 18 20 20 21 20 23 28 30 33 33 35 34 35 44 47 48 50 51 50 48 47 45 46 46
21 24 24 21 10 20 11 16 20 20 22 21 22 28 32 28 39 29 36 41 45 47 50 53 55 56 56 55 48 43 43 43
24 29 30 23 19 12 11 14 19 21 23 23 29 36 30 38 36 40 46 49 50 53 54 55 57 58 56 56 53 47 45 44
32 23 20 8 15 13 14 16 20 22 24 31 28 35 37 39 41 43 47 49 51 54 56 57 56 55 56 56 55 52 49 44
12 11 13 13 11 11 12 15 20 24 26 29 30 32 35 37 40 44 47 50 53 56 56 57 59 60 57 54 52 53 52 48
8 10 12 13 12 12 14 15 18 24 28 30 32 36 40 45 49 52 54 55 57 58 57 54 54 47 44 43 45 48 48 46
11 8 12 12 14 17 21 25 29 35 37 39 41 45 48 51 52 54 54 55 56 56 52 48 45 45 45 42 41 44 48 54
13 11 13 20 23 28 31 33 38 39 39 42 44 47 47 48 51 52 52 52 51 48 48 49 50 51 47 46 42 44 47 52
17 19 20 24 26 31 34 39 39 39 41 44 45 45 45 48 48 48 48 49 50 50 47 44 43 45 47 46 49 48 45 46
22 22 22 25 29 34 38 39 39 40 40 41 42 44 45 46 47 50 51 51 51 47 44 43 45 43 45 41 42 44 44 43
25 25 26 27 33 38 41 40 40 42 44 46 46 48 50 50 51 53 53 53 50 46 47 36 33 32 34 38 40 42 41 37

GFSFLT2_700_spd_027.txt.gz
Wind_Speed
12 10 8 5 4 2 4 6 7 9 9 9 9 9 11 12 13 15 17 18 18 19 20 18 17 17 17 17 15 14 13 11
14 10 7 4 4 6 7 8 10 9 8 7 7 8 9 10 12 14 17 19 19 18 18 16 16 16 16 17 17 17 15 13
11 8 5 4 6 8 9 10 10 7 5 4 6 8 10 11 13 15 17 18 18 20 21 21 19 18 18 18 19 18 18 19
8 6 6 7 9 11 12 9 7 4 2 4 7 9 10 12 14 16 20 21 22 23 22 22 22 21 21 22 23 22 21 22
4 8 10 11 12 12 10 7 4 0 4 6 8 11 11 13 15 18 22 22 25 26 25 23 24 25 26 26 26 26 27 28
10 11 12 13 14 13 9 6 4 4 7 8 10 11 14 16 18 20 22 23 26 29 28 27 31 30 30 29 28 29 30 30
11 10 12 14 14 11 8 7 8 7 9 12 13 14 15 16 18 21 23 26 28 31 31 29 34 34 34 34 34 35 35 34
9 10 11 11 12 9 7 4 10 12 14 13 14 16 17 18 21 23 26 29 31 29 35 35 40 41 39 40 41 42 43 42
9 13 13 13 12 10 8 10 12 20 18 15 18 19 19 21 25 28 31 35 38 35 38 40 47 45 45 46 46 48 49 47
17 18 15 18 20 18 25 12 10 15 15 19 22 22 23 25 34 34 34 36 34 42 43 46 47 49 49 50 50 52 51 49
20 24 24 23 18 23 11 4 9 12 16 21 24 25 24 32 33 39 39 39 43 44 47 49 52 53 54 55 52 51 49 48
20 25 23 24 24 16 5 7 11 14 19 23 23 28 31 32 34 35 38 41 45 47 49 52 54 56 55 56 55 54 53 53
21 21 10 10 5 7 8 10 13 14 18 23 25 26 29 33 36 38 40 43 45 48 49 50 52 55 56 56 54 53 52 50
11 7 8 9 10 9 9 10 13 15 17 23 26 28 32 36 39 41 45 47 49 51 53 55 55 56 55 55 53 51 51 48
4 6 5 4 7 8 9 13 16 22 26 28 31 34 37 40 42 45 48 50 51 52 53 54 54 53 52 49 48 50 51 46
12 8 8 10 11 11 16 21 26 30 31 32 34 37 40 43 46 47 48 49 49 49 50 50 50 48 44 41 38 42 43 47
13 13 14 15 17 20 23 26 30 35 35 35 36 39 41 43 44 45 46 46 47 49 49 49 47 43 44 42 40 40 40 43
22 14 17 20 22 23 25 29 34 37 36 37 38 40 41 42 43 46 48 48 49 49 48 46 44 42 39 36 33 33 37 43
15 17 20 22 24 24 28 33 36 37 37 37 40 42 44 46 46 47 48 48 49 48 46 43 40 39 38 30 36 39 40 41
20 21 23 25 28 29 32 36 37 38 41 43 43 44 45 46 47 47 47 47 46 44 40 36 32 31 32 36 34 35 38 38

GFSFLT2_700_spd_030.txt.gz
Wind_Speed
17 14 11 8 5 4 7 9 9 11 9 8 7 6 6 6 7 9 13 15 16 17 18 18 18 17 15 15 15 14 12 11
15 13 10 6 5 8 11 11 13 11 9 6 4 3 4 5 7 10 13 16 16 18 20 19 18 16 15 15 15 15 14 13
14 11 7 7 10 11 12 13 13 10 7 4 1 1 3 5 8 10 14 15 18 20 21 19 17 15 16 17 18 19 18 17
12 10 9 11 12 12 14 15 13 9 6 4 3 4 5 6 8 11 13 16 19 22 24 24 21 20 21 19 20 20 21 21
10 11 12 13 14 15 16 15 12 9 7 6 7 7 7 8 10 12 14 17 20 23 26 28 26 24 23 23 22 22 23 25
12 14 15 17 18 19 17 15 12 10 9 9 10 10 10 11 12 14 16 18 21 25 29 31 29 29 29 30 30 27 28 29
12 13 15 17 19 17 14 13 11 11 12 13 11 12 14 14 15 18 20 24 27 28 32 33 34 34 34 36 36 36 35 35
12 12 14 15 16 15 14 12 10 13 16 18 14 12 16 18 20 22 25 30 35 33 33 33 33 40 41 41 41 43 43 43
12 12 13 14 16 17 14 7 7 11 14 26 22 16 18 21 24 26 31 36 35 39 38 38 41 42 44 45 47 48 49 47
13 14 15 20 25 25 20 10 12 9 16 17 17 19 22 22 28 29 37 35 38 38 41 42 45 48 47 48 47 45 48 47
18 20 21 22 27 30 28 9 11 11 12 16 18 21 24 28 33 35 35 37 39 41 43 46 47 49 48 48 47 46 47 48
20 20 21 22 19 15 11 6 10 11 13 15 17 23 26 28 32 35 36 38 41 42 44 46 46 49 48 50 51 51 50 50
20 17 14 6 4 3 5 6 8 9 12 16 19 24 29 31 33 35 36 39 41 44 45 47 49 51 50 50 51 52 52 51
20 13 6 7 3 8 5 2 4 8 11 17 21 25 28 31 33 36 38 41 44 45 47 49 49 51 53 50 49 42 33 34
8 2 5 5 6 4 3 4 8 12 18 24 26 28 31 34 36 38 41 42 44 46 48 48 50 47 49 48 45 38 44 43
4 4 5 7 7 6 9 11 15 19 24 28 31 32 34 36 38 39 41 42 44 45 47 48 48 47 46 43 44 42 38 35
8 11 11 11 12 13 15 18 21 24 29 32 32 34 35 36 38 39 41 43 45 46 46 46 46 45 41 38 35 31 27 24
16 13 11 16 16 17 19 22 25 29 34 33 34 35 36 38 40 42 43 43 44 45 45 45 42 40 35 31 28 23 26 27
11 13 16 17 19 21 24 26 30 33 35 34 35 36 38 40 42 42 43 44 44 44 44 31 31 29 31 31 28 33 28 27
12 17 19 21 22 27 30 30 32 38 35 36 37 40 41 42 41 42 42 44 44 43 37 31 29 31 31 29 34 28 29 35

GFSFLT2_700_spd_033.txt.gz
Wind_Speed
21 17 15 14 9 5 7 11 11 11 10 9 7 5 3 3 6 8 11 12 14 17 19 20 20 17 15 13 12 12 12 12
20 16 14 11 8 7 11 12 12 12 10 8 5 2 1 4 5 7 9 12 14 15 18 20 20 19 18 18 16 14 13 12
15 15 12 9 8 11 13 13 14 12 10 7 4 3 3 5 6 8 10 12 14 15 18 21 25 26 20 17 17 17 16 14
18 13 11 9 10 12 13 15 15 13 10 6 6 6 5 8 9 11 12 14 17 19 21 24 25 26 25 22 21 19 21 20
12 9 8 9 12 15 16 16 15 11 10 9 8 7 8 10 11 13 16 17 21 25 27 28 32 33 27 25 25 26 26 26
9 9 11 12 15 16 18 14 15 11 10 10 10 9 10 11 14 16 18 19 21 25 29 34 32 34 29 30 30 31 32 32
10 10 12 13 15 16 17 14 9 8 10 13 14 15 13 17 16 19 20 23 27 31 36 36 34 35 35 36 37 37 37 38
8 9 12 14 16 16 16 12 11 10 10 12 19 22 23 26 20 22 25 27 32 34 38 35 35 36 39 40 41 42 43 43
8 8 10 16 18 20 22 21 8 6 18 26 26 28 24 20 22 27 23 29 33 37 37 38 39 40 43 44 44 43 43 43
10 10 12 14 18 24 26 24 16 17 18 22 22 21 17 18 23 29 30 34 35 37 39 41 42 42 45 45 45 44 43 41
14 15 15 18 18 27 24 32 26 10 16 21 20 18 17 21 25 28 32 36 37 37 39 40 43 44 45 46 45 46 45 45
19 19 18 18 19 15 3 4 10 9 12 16 15 16 19 23 27 30 31 34 36 40 40 41 43 46 48 49 46 45 46 47
20 20 20 20 11 9 6 8 9 11 14 12 12 16 19 23 28 30 30 36 39 41 42 43 45 46 48 48 48 46 40 36
22 23 21 13 12 9 9 9 10 11 10 12 16 20 23 26 27 32 35 35 40 43 43 45 45 47 47 48 49 46 37 26
18 14 12 11 11 9 11 12 12 13 15 18 20 24 28 29 32 33 36 38 40 43 46 47 46 46 46 44 43 40 41 38
12 12 9 8 11 12 11 12 11 18 20 23 27 29 30 32 35 36 37 39 41 43 43 45 45 45 43 39 37 36 33 38
11 8 11 12 12 13 13 15 16 19 21 26 28 35 34 35 37 38 38 39 41 43 43 43 42 42 40 35 32 29 29 26
12 13 13 13 14 16 18 20 23 27 25 27 34 35 34 37 38 39 40 41 42 42 43 41 40 36 32 33 30 27 25 26
14 14 14 16 18 20 22 25 25 28 30 31 36 33 35 37 37 37 39 39 40 42 43 39 34 28 30 33 37 37 28 29
14 16 19 20 22 24 26 28 30 31 30 35 34 35 35 36 37 38 39 41 41 40 40 39 30 28 32 36 40 30 31 29

GFSFLT2_700_spd_036.txt.gz
Wind_Speed
24 24 21 10 12 10 8 11 11 12 12 11 10 8 5 4 4 5 7 9 11 13 15 17 18 19 18 16 15 10 11 13
23 19 12 13 13 8 10 12 11 13 12 10 7 4 2 1 3 5 7 9 11 13 15 17 18 21 20 17 15 13 13 16
21 18 16 15 10 9 12 13 14 13 11 9 6 5 2 3 5 7 9 12 14 16 18 19 22 26 26 24 16 16 17 20
16 19 15 10 9 11 12 14 15 14 12 10 6 3 7 6 9 11 12 14 16 17 19 21 24 30 29 25 21 19 21 23
16 13 11 10 10 12 14 15 16 15 12 6 6 6 9 11 11 14 14 17 19 23 26 29 31 33 30 27 24 25 26 28
9 8 7 7 9 13 15 17 14 10 8 8 8 10 13 15 20 22 18 20 21 23 26 29 33 32 31 32 31 32 32 33
10 11 10 11 13 16 17 16 15 12 11 9 13 15 17 19 28 23 22 26 26 28 29 30 33 33 34 35 35 35 35 37
8 9 11 14 14 13 15 17 15 12 10 11 16 16 15 20 26 26 23 24 26 31 31 32 34 34 34 35 37 36 35 37
7 7 8 7 11 15 16 19 16 11 13 21 24 29 27 25 27 23 20 26 29 29 32 33 35 37 37 39 40 39 40 40
4 5 6 6 8 12 14 17 23 26 22 21 31 22 22 20 21 19 22 26 30 31 34 36 38 40 39 40 42 40 40 40
10 11 9 9 11 10 16 14 18 26 31 31 25 21 19 19 19 18 23 27 29 32 33 36 38 40 40 41 43 44 42 42
15 16 12 16 15 15 10 11 13 12 13 17 16 16 17 18 18 20 24 28 31 35 36 36 37 39 40 41 43 44 43 42
16 17 15 18 18 16 13 13 12 10 13 15 16 15 16 20 24 26 26 30 35 38 39 40 40 41 42 42 42 42 40 37
20 20 18 22 20 14 14 13 11 12 13 14 16 17 19 23 25 29 32 34 35 38 40 41 41 41 43 45 45 43 42 42
24 24 21 18 16 13 13 13 13 15 16 18 20 21 24 26 30 30 32 35 36 37 38 41 42 40 40 43 45 47 47 44
25 22 16 16 15 14 13 14 18 20 21 21 20 22 26 29 33 33 33 33 35 37 37 40 40 41 42 41 40 44 44 48
21 17 17 15 13 15 13 16 20 21 23 25 28 28 29 34 35 37 37 37 37 39 40 42 42 41 43 44 41 38 36 37
19 13 16 16 17 18 16 19 22 24 25 26 28 32 32 34 36 37 37 37 38 38 38 40 40 39 39 39 33 34 37 36
16 15 20 18 18 19 21 22 26 29 31 32 34 32 32 32 35 35 35 37 37 37 37 39 41 40 36 29 34 38 35 39
18 19 21 19 19 23 24 26 30 34 36 35 34 34 31 32 33 34 35 37 38 38 38 38 39 38 34 32 36 36 35 36

GFSFLT2_700_spd_039.txt.gz
Wind_Speed
33 29 28 22 14 11 10 13 14 14 14 13 12 10 8 6 4 2 3 5 7 10 11 12 13 16 19 15 10 12 15 15
20 23 23 18 16 14 11 14 15 16 16 15 11 7 4 1 2 3 6 7 9 11 13 14 16 18 22 19 13 12 15 14
23 17 19 17 13 10 10 14 15 16 14 12 8 4 3 3 5 7 9 10 11 13 16 17 19 19 21 22 15 14 17 17
19 18 16 13 10 11 14 14 13 13 12 10 8 5 5 7 9 11 15 14 14 18 18 19 21 22 21 18 17 16 18 20
20 18 14 11 10 11 11 11 11 11 12 11 9 8 8 9 11 15 20 16 16 17 19 21 24 26 28 26 25 23 24 26
15 15 12 9 10 12 11 10 9 12 14 13 10 11 11 12 17 19 24 25 26 24 26 25 28 29 30 31 31 30 29 30
12 9 9 10 10 7 7 11 12 15 14 11 11 14 16 16 17 20 22 23 29 25 23 26 28 29 30 30 30 29 30 31
6 6 6 5 3 4 5 7 8 10 13 16 16 16 17 14 19 22 22 22 26 25 25 27 29 30 29 31 32 30 31 32
5 4 2 1 2 3 5 9 10 13 18 17 18 18 21 24 20 20 21 24 24 24 25 27 30 32 33 36 37 36 34 35
7 6 4 2 3 3 8 8 13 17 23 21 24 24 22 24 19 21 22 25 24 23 25 30 33 36 35 35 35 35 34 35
7 4 2 5 4 7 8 10 17 18 24 32 30 32 32 26 22 21 24 26 26 28 29 33 35 35 34 33 32 34 34 36
8 5 9 10 10 13 10 11 14 15 16 17 18 19 23 23 20 21 25 28 30 31 33 35 34 35 34 34 34 34 35 37
7 9 12 13 13 14 11 13 14 14 14 15 16 18 20 20 21 23 25 27 29 32 35 36 35 34 35 36 36 35 34 36
13 13 14 15 17 19 16 13 13 13 15 16 17 18 21 22 23 24 26 27 30 34 37 37 36 36 37 38 39 37 36 37
19 19 16 20 21 20 16 15 16 15 18 17 19 21 23 22 22 24 30 29 30 33 35 37 38 37 38 39 41 43 46 45
26 21 20 23 20 15 15 17 20 18 19 19 20 22 25 27 28 29 33 29 31 32 33 35 38 38 38 38 40 42 45 49
27 24 22 19 18 16 18 22 23 20 21 21 22 25 28 31 37 35 32 32 31 32 34 37 39 40 40 41 42 42 40 42
26 25 22 21 19 18 20 23 24 24 25 27 30 31 33 36 34 37 35 34 33 34 36 38 39 39 39 40 39 41 42 39
26 26 24 20 19 20 19 23 24 26 28 32 34 35 39 42 41 34 32 33 32 34 37 38 38 39 41 41 39 37 38 39
22 25 23 19 17 19 21 23 27 29 32 34 38 40 39 48 42 33 33 33 34 35 37 38 39 38 40 39 38 35 40 37

GFSFLT2_700_spd_042.txt.gz
Wind_Speed
32 37 37 34 30 21 13 15 15 15 16 15 13 11 8 5 3 2 3 3 4 5 6 6 7 9 12 15 16 15 16 15
36 35 39 27 22 15 15 17 17 17 15 12 11 9 6 4 4 5 7 7 8 8 9 11 11 13 15 18 20 17 16 16
23 22 29 22 16 16 17 17 16 15 14 14 12 9 6 6 5 7 10 11 11 12 13 15 17 15 17 17 16 16 19 20
23 24 22 20 14 12 13 15 16 15 14 12 10 8 8 7 7 10 13 14 12 12 16 17 17 19 20 20 20 21 22 22
27 23 22 17 13 13 14 14 14 14 14 14 12 12 11 10 11 12 13 14 16 17 18 21 25 26 26 24 23 24 26 25
22 17 17 13 11 11 12 12 14 14 15 14 14 14 12 13 13 15 16 19 21 23 24 25 26 24 27 27 26 25 26 28
22 17 13 11 9 9 11 10 12 12 12 14 14 14 13 15 17 17 21 23 26 23 22 24 24 23 25 26 27 26 26 27
19 16 13 10 7 8 8 8 6 6 11 14 14 12 13 17 16 22 24 22 21 21 23 24 25 25 28 30 30 30 30 29
12 11 9 9 9 8 6 6 6 8 11 12 16 17 20 19 20 20 21 21 22 23 23 25 27 29 31 35 35 34 34 33
10 10 11 10 8 5 3 0 5 9 14 15 19 23 24 26 27 27 26 25 24 24 26 29 31 33 35 36 33 33 33 32
6 5 4 4 2 2 2 5 8 13 15 19 22 27 31 32 32 28 25 25 24 26 29 32 32 34 37 37 34 33 34 33
5 3 3 4 6 7 8 8 10 13 17 18 18 20 20 19 20 23 24 23 26 30 32 31 33 35 36 35 34 33 34 34
5 6 8 9 12 12 12 11 12 13 16 17 19 20 21 19 21 22 23 26 29 31 34 32 33 35 34 34 34 34 34 34
11 10 10 13 15 15 16 16 14 17 17 21 21 19 18 19 22 26 29 29 28 33 33 34 35 34 34 35 36 36 37 37
14 14 14 16 19 20 20 18 16 17 18 18 18 19 20 24 28 29 30 31 34 36 36 37 36 34 34 36 39 40 40 40
20 19 18 20 21 23 19 16 16 18 18 17 19 21 26 28 26 26 27 33 31 35 37 36 38 36 36 38 39 41 43 46
22 24 24 23 25 23 16 16 17 18 19 19 21 24 28 26 28 31 34 42 40 36 37 38 38 38 38 39 40 41 42 43
22 24 30 28 25 17 14 16 16 19 21 21 23 26 29 32 35 34 32 40 44 38 36 41 40 40 40 40 40 41 41 41
24 28 27 30 23 18 18 19 18 20 23 26 30 32 35 35 35 42 41 41 44 33 37 40 41 41 41 41 42 42 43 42
25 24 21 24 21 18 21 21 22 24 29 33 35 36 38 42 48 43 41 32 38 37 37 40 42 42 39 39 40 41 41 39

GFSFLT2_700_spd_045.txt.gz
Wind_Speed
37 39 38 34 23 25 17 18 18 17 16 15 13 12 10 8 6 4 3 2 3 4 7 11 13 15 17 18 21 21 19 19
31 40 42 34 27 28 26 19 18 17 16 16 14 12 10 7 4 6 5 5 6 7 9 11 12 14 18 20 20 22 22 22
33 27 35 37 30 24 22 20 17 17 17 15 15 12 10 7 7 7 7 7 10 12 12 14 12 14 16 18 19 19 19 20
34 32 31 26 28 17 17 17 17 17 18 16 14 12 10 9 9 8 8 11 13 16 15 14 14 15 17 19 21 22 23 23
13 35 34 31 18 16 17 17 18 18 18 16 13 12 10 8 10 9 11 14 16 17 18 18 18 20 19 19 21 24 26 27
36 30 25 20 16 14 15 15 16 16 15 15 13 12 10 10 12 13 15 15 21 18 17 18 20 19 20 22 25 27 28 27
30 23 19 16 15 14 15 14 14 14 14 13 13 13 13 14 15 15 15 16 18 18 19 21 21 22 24 27 30 31 31 30
17 14 13 13 12 11 11 11 10 11 11 12 15 15 15 15 15 16 20 21 21 22 22 22 23 24 27 31 34 35 36 35
14 15 18 16 13 11 9 9 10 10 11 10 10 13 15 18 20 23 25 25 21 21 21 22 25 29 31 34 36 38 40 39
19 17 18 15 13 10 8 9 9 8 10 10 12 14 19 24 28 30 29 24 19 20 22 26 29 31 33 34 37 39 40 38
15 14 13 13 11 9 7 8 7 8 10 12 14 18 21 22 22 20 17 17 18 20 26 30 33 35 36 37 38 38 36 37
10 9 8 10 9 6 4 7 6 9 11 14 17 21 19 20 19 16 17 19 22 27 30 32 34 37 39 39 40 39 36 36
9 7 4 4 3 5 7 7 9 11 14 17 19 20 19 21 21 21 23 26 30 32 33 35 37 38 39 40 41 39 38 37
8 6 6 6 7 9 11 12 13 15 17 18 19 20 20 22 23 24 27 30 33 34 37 39 44 41 40 40 43 42 41 40
9 9 10 11 11 14 16 17 17 16 16 18 21 22 22 23 24 26 27 28 31 31 36 38 41 42 39 42 44 44 44 43
13 13 15 16 17 18 18 20 18 15 19 22 22 19 21 23 26 27 29 30 34 35 37 38 38 40 42 41 42 42 45 48
10 13 16 19 20 21 21 20 17 18 18 20 20 21 23 25 27 29 32 35 40 44 46 45 41 40 39 42 43 45 46 47
15 15 14 19 23 28 21 19 17 18 18 19 22 25 28 30 33 35 37 42 44 41 50 52 41 41 40 43 46 47 46 45
15 15 17 22 26 24 18 17 15 18 19 22 26 30 34 36 37 43 42 44 46 47 55 55 52 43 39 44 45 46 46 45
16 17 19 22 22 19 19 21 19 21 25 27 27 31 35 40 40 34 44 41 46 51 49 51 47 38 41 43 46 44 42 43

GFSFLT2_700_spd_048.txt.gz
Wind_Speed
35 46 39 39 35 28 23 18 17 15 16 17 15 13 11 9 7 4 2 5 7 10 11 11 14 15 15 16 19 20 21 21
39 38 39 41 34 32 28 25 21 18 19 17 16 14 11 8 5 1 2 3 6 8 9 12 14 12 14 16 18 18 18 19
29 36 24 38 39 36 34 32 21 21 21 19 17 13 9 5 2 1 5 7 8 9 12 13 13 13 15 15 15 17 18 20
26 23 27 43 40 32 29 27 23 23 20 18 15 12 8 4 2 6 7 9 11 13 17 16 14 15 16 14 16 20 22 25
28 28 24 31 39 28 23 24 23 21 19 16 14 11 7 3 6 8 9 10 12 17 15 14 14 14 14 16 19 23 25 27
23 15 21 35 29 26 25 23 22 20 18 16 13 9 7 7 8 10 11 12 14 14 14 15 15 15 17 20 24 25 27 29
33 36 36 28 23 23 23 21 19 17 14 12 11 10 9 10 12 11 12 15 19 18 17 16 16 20 24 26 27 28 28 30
25 23 21 22 19 17 18 17 14 13 12 13 12 12 12 13 13 15 17 20 22 20 19 19 20 24 27 29 30 30 31 33
17 16 17 16 18 16 14 14 13 14 12 11 11 12 14 14 16 20 21 21 20 17 19 19 21 25 29 32 34 34 36 37
15 17 17 17 16 14 13 12 11 11 11 13 13 10 10 13 16 17 17 16 15 17 18 21 24 26 30 33 35 37 37 39
15 15 15 15 15 14 13 13 13 12 10 11 13 11 12 15 16 16 15 14 14 17 20 23 26 30 33 36 39 41 40 40
15 14 15 14 12 10 10 11 8 9 10 11 13 13 15 17 17 17 16 15 17 19 24 27 31 35 38 39 42 42 40 41
15 12 11 9 6 4 3 3 7 9 10 12 13 14 17 18 17 18 17 18 21 24 28 32 35 38 41 42 44 43 42 43
11 11 9 8 6 5 6 8 9 11 12 12 13 16 18 19 19 20 21 22 24 28 31 35 40 42 40 42 46 41 43 43
9 8 8 8 8 10 9 11 12 12 12 12 15 18 19 20 21 23 25 26 28 32 34 38 40 41 42 48 49 45 46 45
11 13 12 13 13 14 15 14 14 14 16 16 18 19 21 21 22 25 26 28 32 35 38 43 43 41 44 49 45 45 51 49
7 9 12 14 14 15 18 19 18 17 20 20 19 20 22 24 26 28 31 33 35 39 42 36 48 45 49 47 41 52 46 45
13 13 12 15 15 17 19 22 23 24 24 22 21 22 24 27 31 34 36 37 34 33 38 45 44 48 52 44 50 46 45 49
13 15 14 14 18 17 19 22 20 21 22 23 21 25 26 29 33 35 39 41 39 45 41 47 44 48 48 49 46 44 45 47
17 12 12 14 17 17 20 18 21 21 24 24 23 27 27 33 43 38 26 36 37 40 46 49 45 46 50 46 45 46 47 48

GFSFLT2_700_spd_054.txt.gz
Wind_Speed
29 34 34 32 37 33 31 26 23 21 18 17 19 18 16 14 11 9 7 6 6 7 10 12 11 11 12 12 11 11 11 12
23 39 33 38 40 41 40 29 26 22 23 21 20 17 15 13 9 7 5 4 5 8 10 12 12 10 9 8 9 11 13 12
27 30 32 39 39 32 34 33 27 26 26 22 20 17 14 11 8 5 3 3 5 6 10 11 9 7 7 7 10 12 12 13
27 18 29 33 29 31 47 38 29 26 21 23 18 16 13 9 7 3 1 1 4 8 7 9 9 8 7 7 10 13 14 14
21 27 45 42 43 32 28 47 41 37 34 24 21 16 12 9 5 2 1 3 6 6 10 10 9 7 6 9 12 14 15 14
9 40 34 20 19 17 35 32 36 38 29 23 18 14 10 8 5 5 4 5 6 10 12 11 8 6 7 11 14 16 17 18
25 31 27 26 25 30 34 36 38 30 22 21 19 16 11 9 8 6 6 8 11 15 14 9 6 7 10 14 17 18 20 23
24 20 17 13 18 23 40 40 26 24 24 19 18 14 12 11 9 8 10 12 15 13 11 7 7 10 13 16 18 19 21 23
17 17 38 38 28 37 35 27 27 24 20 20 18 15 14 11 11 11 12 13 13 11 9 8 10 13 15 16 19 21 25 24
32 34 35 29 25 27 28 28 23 21 21 19 20 16 13 12 11 11 11 12 12 9 9 11 13 16 18 20 22 25 26 26
21 18 19 20 23 24 24 23 23 22 22 22 19 17 15 13 12 11 11 12 11 11 12 14 15 18 20 22 24 28 32 32
17 17 19 20 21 21 22 21 22 22 21 17 17 18 16 15 15 14 14 13 15 15 15 16 19 21 23 25 27 30 33 36
15 16 17 17 17 17 16 16 17 18 19 20 19 19 18 17 16 17 17 18 18 17 18 19 21 22 24 29 34 34 35 34
16 15 15 15 14 14 14 14 14 16 18 17 22 20 18 17 18 19 21 21 20 20 21 22 24 23 26 32 34 37 42 38
16 15 15 15 15 15 15 16 16 16 18 20 22 21 20 20 23 21 21 22 22 22 24 24 26 27 30 33 35 35 36 40
19 19 18 17 17 17 17 18 16 14 16 19 20 21 23 23 26 23 23 25 25 25 26 26 28 33 39 28 31 32 35 35
18 18 18 18 19 19 19 20 19 21 20 22 22 24 25 27 26 26 25 26 26 26 27 29 36 38 38 36 36 33 35 33
18 18 17 17 18 19 18 20 21 23 23 25 25 27 27 28 31 28 27 26 25 25 30 33 27 35 35 35 34 39 38 37
20 19 18 16 14 16 19 21 21 23 25 25 28 26 27 29 26 24 24 27 26 32 30 32 30 34 38 34 40 36 36 37
20 18 18 18 16 17 21 21 22 25 28 28 24 26 32 21 23 29 27 24 28 29 29 31 32 27 36 36 40 36 35 35

GFSFLT2_700_spd_057.txt.gz
Wind_Speed
39 35 35 36 39 36 34 29 25 21 21 22 19 19 19 17 14 12 10 8 7 7 8 9 8 8 8 7 9 9 10 11
22 27 34 28 36 38 35 31 30 26 25 22 21 20 18 17 13 11 9 6 5 6 8 8 9 7 7 7 8 8 10 9
19 27 16 21 17 32 33 37 27 28 27 27 24 22 20 16 11 8 6 4 3 6 7 8 7 8 7 6 7 9 9 9
17 23 22 28 26 38 31 38 38 33 31 29 28 23 19 14 10 8 5 3 1 3 5 9 9 6 4 4 7 8 9 10
17 18 20 31 34 42 28 36 40 38 34 32 25 21 17 14 10 7 5 2 1 1 6 9 8 5 4 6 8 9 10 12
22 26 30 28 40 40 44 44 47 45 40 34 28 20 15 12 8 6 5 3 4 6 10 11 7 5 4 6 8 9 11 13
26 26 31 38 45 36 21 43 52 50 36 32 23 18 14 10 9 7 5 6 7 10 12 9 6 6 6 8 10 11 12 13
14 19 34 30 20 17 23 29 28 36 32 25 18 18 14 13 10 8 8 9 11 13 11 8 8 7 8 10 10 10 13 16
17 25 24 20 23 25 36 36 39 29 22 22 21 18 16 14 12 11 10 10 13 12 11 9 9 10 11 11 11 12 14 18
19 18 25 26 27 37 36 33 31 29 27 25 21 19 16 13 12 13 11 12 12 12 13 12 11 12 13 15 16 17 19 22
26 26 30 29 30 31 32 32 29 24 24 22 18 18 18 17 16 15 12 13 12 13 15 15 14 15 16 17 19 21 23 26
15 16 20 21 22 24 26 25 24 25 22 20 19 20 22 20 19 19 17 16 14 16 17 17 18 18 19 22 23 23 26 28
12 13 15 17 19 19 19 20 21 21 21 21 20 18 20 21 21 22 20 20 19 18 21 21 20 20 22 26 30 34 30 34
15 15 14 14 16 17 18 19 19 18 19 19 19 21 24 24 24 24 23 25 22 22 22 24 24 22 23 27 28 29 39 40
15 13 13 13 14 15 15 16 17 18 19 19 21 20 25 29 26 27 25 28 25 23 24 25 25 28 25 28 32 33 31 32
16 16 17 17 17 18 17 16 16 15 16 18 19 23 28 27 23 32 27 28 30 26 27 26 27 33 32 31 36 37 33 35
18 18 18 18 18 18 17 18 17 19 21 21 21 24 27 27 27 27 31 30 30 29 27 28 29 29 36 32 29 34 35 33
21 21 20 20 19 18 18 18 19 21 25 22 25 28 29 31 30 30 28 32 35 32 30 29 28 34 31 36 32 34 31 30
20 21 20 19 18 18 17 18 19 20 25 21 26 28 30 29 33 34 30 39 35 28 30 28 32 31 33 38 36 34 35 34
23 21 20 20 21 21 19 19 19 21 25 28 29 29 32 30 32 35 41 35 30 26 28 25 25 32 36 36 43 34 38 31

GFSFLT2_700_spd_060.txt.gz
Wind_Speed
20 23 32 34 30 30 29 27 26 24 21 21 21 21 21 21 18 16 14 11 9 8 8 8 8 8 7 7 7 7 8 8
13 9 15 17 23 23 31 32 30 25 24 24 24 24 23 21 18 15 12 10 8 7 7 8 8 7 6 6 6 6 7 9
11 13 9 17 12 22 22 32 35 25 28 28 27 26 25 21 17 15 12 10 6 6 7 7 6 6 5 4 4 6 9 8
15 12 20 18 16 15 21 22 33 35 32 31 31 30 26 21 18 14 11 7 5 4 4 5 6 2 3 4 5 6 7 6
12 17 15 20 24 21 32 33 33 41 38 33 30 29 25 18 14 9 8 5 2 1 3 6 6 3 1 2 3 5 7 7
12 21 20 18 25 21 28 36 39 43 38 36 30 26 25 20 14 9 7 3 2 3 7 10 7 2 1 3 5 7 7 6
17 12 24 22 30 15 27 36 46 44 43 41 29 29 21 16 13 8 6 4 4 6 10 9 6 4 5 5 6 6 10 9
21 15 23 30 20 30 41 34 33 45 43 34 33 22 16 16 10 8 6 5 7 8 9 9 6 5 6 7 8 8 10 13
13 15 18 25 25 27 31 18 22 48 38 34 27 21 17 13 9 9 8 9 9 10 10 10 7 7 7 10 9 10 10 14
7 15 19 16 22 24 17 21 25 33 31 25 20 19 18 13 12 11 11 11 10 11 12 12 9 11 11 12 14 14 14 16
21 16 17 15 14 25 32 33 30 26 26 25 23 20 17 15 14 13 14 14 12 12 14 13 13 14 15 17 18 19 19 19
24 26 30 32 38 37 35 27 33 26 25 22 20 20 21 18 17 16 18 18 16 17 15 15 19 18 18 22 21 22 24 25
15 17 20 22 23 22 25 24 23 23 23 24 23 19 21 24 20 20 21 20 23 20 19 19 22 23 21 23 27 28 27 30
12 13 14 16 17 18 17 17 18 19 20 20 19 19 19 15 16 22 25 24 27 23 24 24 23 24 25 25 27 30 34 32
11 12 14 16 17 17 18 20 21 20 19 19 19 18 21 17 17 22 31 30 30 28 25 28 25 29 25 26 30 30 33 34
12 13 13 13 12 14 16 15 15 14 16 17 17 17 19 23 24 27 32 28 29 32 28 28 30 30 32 30 30 32 36 31
14 15 14 12 13 13 13 15 13 14 15 16 16 13 18 22 25 26 29 30 31 31 32 27 35 29 35 29 32 32 31 39
16 14 13 13 14 15 16 19 18 17 17 19 19 16 22 24 28 27 29 32 33 31 33 38 42 34 22 32 30 32 34 40
19 18 17 17 17 18 17 17 19 19 19 25 22 18 23 22 26 27 28 32 32 37 35 37 39 25 30 31 30 36 35 35
21 20 20 21 21 23 23 19 19 22 25 22 22 25 23 27 27 26 30 31 33 41 46 39 34 28 31 31 32 39 34 39

GFSFLT2_700_spd_063.txt.gz
Wind_Speed
16 14 30 37 34 40 35 35 30 26 25 23 23 22 22 22 21 20 17 14 13 11 10 10 9 7 5 4 10 10 7 7
18 29 27 5 15 32 31 36 32 28 27 26 26 26 26 25 23 20 17 13 10 10 11 10 9 7 5 2 8 8 6 6
14 17 13 8 16 10 27 30 31 28 28 29 29 30 29 26 24 21 12 14 10 10 10 9 6 5 4 1 7 6 6 5
19 14 13 11 4 11 10 13 30 32 30 29 29 29 27 25 21 19 17 11 10 10 7 6 4 2 4 1 3 4 3 3
14 14 9 14 16 13 12 14 27 30 38 38 33 30 27 23 20 15 11 10 8 6 4 3 1 4 3 1 2 4 5 3
17 12 14 11 12 13 9 16 27 40 40 37 34 31 29 24 17 15 10 8 6 3 0 2 0 2 2 2 5 4 3 3
11 12 13 13 14 14 14 27 36 43 43 41 40 35 32 21 20 18 13 8 4 2 3 4 4 2 4 5 8 6 4 5
12 15 10 12 20 14 22 19 32 48 48 48 43 35 24 24 20 16 10 6 4 5 4 4 4 6 7 7 9 10 6 6
24 20 16 13 11 17 17 24 41 39 32 46 38 29 27 25 18 14 9 7 7 5 6 7 7 8 9 9 8 11 13 10
17 11 15 8 12 17 18 38 14 25 27 37 34 30 30 23 17 13 11 8 8 9 9 10 8 8 10 10 10 11 14 16
17 15 16 13 8 15 26 26 16 23 34 30 34 28 22 18 13 12 11 11 11 11 11 13 13 12 10 13 13 13 16 17
18 16 18 17 22 22 23 24 31 33 36 37 33 30 26 19 16 15 14 13 13 14 15 17 18 17 17 18 17 18 20 21
18 22 28 31 29 30 32 33 36 37 35 29 27 25 21 18 17 18 18 14 15 18 20 20 22 21 24 26 25 25 22 24
12 15 19 24 25 24 22 25 25 24 24 24 24 22 18 18 13 15 15 15 17 21 23 24 24 25 25 27 31 32 28 27
14 15 15 18 21 20 20 21 21 21 21 20 20 19 19 17 17 16 13 18 14 18 24 28 30 30 29 28 35 36 31 29
11 11 14 16 16 18 17 15 15 13 14 16 17 19 18 18 19 22 20 21 24 24 23 24 34 32 36 32 39 38 31 28
10 10 11 12 12 13 12 16 15 14 15 16 17 15 17 20 20 18 20 21 19 22 25 28 34 32 31 33 42 36 29 26
13 13 12 12 13 13 11 11 13 14 15 16 14 13 16 22 20 20 22 25 27 29 29 30 33 31 34 38 41 30 30 27
17 16 14 14 16 14 13 13 12 12 14 15 16 17 13 14 17 20 22 24 26 28 29 29 31 32 34 37 32 26 29 31
20 19 19 20 20 18 17 15 14 13 13 21 17 17 15 16 20 19 23 22 23 24 25 30 27 26 24 26 22 26 26 33

GFSFLT2_700_spd_066.txt.gz
Wind_Speed
31 38 35 27 31 50 41 39 40 33 29 28 28 26 26 25 24 23 21 18 15 12 8 6 6 11 11 9 5 6 5 5
21 21 20 32 40 19 45 40 38 35 34 32 32 30 28 27 26 24 21 19 16 13 10 6 4 8 9 9 6 5 4 4
18 19 22 28 19 9 6 31 36 38 32 32 32 32 31 30 28 25 22 17 13 9 10 8 4 5 7 7 6 5 4 4
19 19 17 12 17 9 5 35 39 36 33 33 32 32 32 30 27 23 16 11 12 13 10 7 3 2 4 4 3 3 3 2
21 19 16 14 8 7 27 15 25 36 34 32 33 33 32 31 28 21 18 14 11 10 8 5 3 3 3 4 2 1 2 1
22 17 10 13 19 15 21 18 30 34 36 39 40 35 33 30 26 19 20 16 12 9 6 3 4 6 6 4 1 2 3 3
12 7 15 14 18 18 16 10 19 35 35 39 41 38 35 30 23 23 20 12 10 7 3 3 5 7 7 5 3 3 3 3
12 13 20 21 11 18 10 11 31 42 44 41 41 39 31 28 27 21 15 11 9 7 4 3 2 4 5 5 5 5 5 5
16 13 10 14 12 22 16 15 32 39 42 42 44 39 32 29 26 19 15 15 13 7 5 2 2 4 6 8 10 9 9 9
20 18 16 15 10 9 16 27 32 44 47 48 47 41 34 30 26 20 17 15 11 9 3 2 3 5 9 12 12 13 13 13
13 18 15 16 9 16 29 29 40 47 45 44 46 40 32 32 24 19 19 16 12 7 5 5 6 7 11 13 15 17 18 17
15 17 14 15 19 21 27 32 39 39 38 43 38 38 34 28 23 24 19 16 10 8 10 10 12 14 15 17 15 16 22 23
14 18 20 20 17 23 32 33 27 23 29 32 41 36 35 28 25 22 18 12 11 11 12 13 15 20 23 24 24 22 21 21
15 20 18 19 20 21 26 23 25 29 34 39 41 35 31 28 24 21 17 15 16 13 13 15 17 20 25 28 28 30 28 28
12 16 18 22 23 23 25 27 31 34 37 36 34 31 31 28 22 9 12 8 14 13 11 15 15 21 26 30 38 37 35 32
12 13 14 16 19 22 22 19 20 20 26 28 28 28 25 22 21 21 19 15 13 15 19 18 17 21 25 32 35 38 38 42
12 14 15 15 15 17 18 18 17 17 21 23 23 24 24 22 20 19 17 15 14 19 21 22 24 24 27 32 28 24 32 40
16 15 13 12 13 14 16 17 20 21 23 22 22 21 19 20 21 19 21 18 20 22 24 25 27 27 27 29 30 36 32 33
20 19 18 16 16 16 16 16 16 17 19 19 18 15 17 18 16 22 24 25 21 19 21 23 24 28 26 26 29 30 27 24
21 21 20 20 19 19 18 17 18 16 16 16 16 17 17 19 19 20 22 17 21 22 22 22 23 28 29 25 30 23 23 25

GFSFLT2_700_spd_069.txt.gz
Wind_Speed
16 20 31 40 20 33 48 55 43 34 36 31 31 30 29 27 25 24 21 19 17 16 13 11 9 10 9 9 7 6 6 6
17 17 19 39 22 40 22 51 51 46 45 36 35 33 32 30 27 25 22 18 15 15 13 12 13 13 9 8 7 6 5 5
14 17 20 19 12 10 36 38 46 42 37 38 38 36 34 31 28 25 21 17 13 12 14 10 11 13 11 7 7 5 4 4
13 16 18 15 7 8 10 22 31 36 38 41 38 37 35 32 29 26 22 17 13 9 10 12 10 8 10 9 8 6 4 4
17 18 18 15 8 9 10 21 34 38 37 36 38 37 35 32 29 26 22 18 15 7 9 8 6 7 8 8 6 4 3 3
16 18 16 15 13 9 9 33 38 41 42 43 38 36 33 32 29 26 20 18 13 11 7 5 9 9 7 6 5 3 3 2
16 11 17 14 21 22 17 24 31 35 42 45 40 37 34 32 30 24 20 14 14 11 7 6 8 7 8 6 4 2 2 2
12 7 19 17 20 20 21 20 30 36 39 36 39 43 33 33 27 22 19 17 18 11 7 6 5 6 8 7 5 2 2 3
14 14 19 21 28 20 18 19 27 37 40 39 37 34 35 29 26 25 20 19 12 10 7 5 4 5 6 6 6 5 5 7
19 21 18 26 16 15 25 19 32 40 40 37 38 37 34 30 28 20 25 17 12 10 7 6 3 4 5 6 7 8 9 10
24 14 18 18 11 14 22 22 36 43 42 40 41 44 42 29 25 25 22 17 13 10 10 7 3 5 6 9 10 12 14 14
19 19 17 17 15 18 19 33 40 42 41 43 41 37 42 32 27 29 19 18 15 11 13 10 7 8 9 10 11 16 18 18
18 17 16 18 18 23 28 24 40 45 45 38 38 36 37 31 30 25 23 19 15 14 15 11 10 13 15 14 16 17 18 18
13 17 19 20 18 19 21 27 35 40 39 42 44 44 43 34 33 27 24 20 15 19 14 13 15 16 18 19 21 21 21 28
9 16 18 13 11 16 26 27 32 31 27 39 40 43 39 38 34 28 23 19 19 22 17 14 12 17 17 21 25 26 27 25
6 9 15 16 17 19 24 27 30 30 27 34 32 39 37 37 31 26 19 21 21 15 17 19 21 20 20 23 24 30 31 26
6 7 9 12 12 13 13 16 19 22 26 30 34 36 36 32 29 25 25 19 24 23 23 22 23 25 26 26 27 31 31 34
9 8 8 9 10 11 12 14 17 19 20 21 24 27 29 30 28 26 26 28 26 23 23 25 27 27 27 30 28 30 34 24
13 12 11 11 10 10 10 13 17 18 20 22 25 26 26 26 25 28 29 28 28 30 28 25 24 28 29 28 30 33 35 29
17 16 15 13 13 11 11 13 15 17 19 21 23 24 24 25 26 25 26 28 32 32 20 26 26 27 29 27 33 31 37 33

GFSFLT2_700_spd_072.txt.gz
Wind_Speed
21 22 22 19 30 32 42 32 39 35 42 34 31 30 29 26 25 23 22 20 20 18 15 13 12 11 11 10 9 9 9 7
18 19 16 13 14 10 29 38 52 47 47 36 36 32 31 29 28 25 22 20 18 14 13 12 11 12 12 10 10 8 8 7
11 12 16 13 19 22 24 41 48 42 45 42 36 36 36 31 29 25 23 22 18 16 14 13 12 10 9 10 8 7 7 7
12 13 16 17 17 20 8 34 42 51 45 42 37 41 33 34 30 26 23 22 19 16 13 13 13 9 8 6 6 6 6 7
17 17 17 14 14 15 10 25 37 43 44 47 46 40 39 34 30 26 22 21 20 19 15 11 9 10 7 7 7 5 5 5
21 19 17 16 13 14 11 29 32 40 37 40 40 41 36 32 27 23 20 20 19 15 11 8 9 8 8 8 7 5 3 3
18 15 15 19 19 18 19 24 37 37 41 42 43 41 36 32 26 21 19 20 16 6 10 12 8 7 8 8 7 5 4 4
16 11 9 18 18 17 20 26 38 39 46 44 46 41 36 36 28 22 20 16 11 6 12 7 5 8 9 9 7 5 4 4
13 11 12 16 17 19 21 28 29 34 41 47 38 38 43 40 31 25 21 15 11 15 9 5 5 7 9 7 6 5 4 3
14 16 13 14 21 23 22 27 33 38 45 53 51 48 44 31 25 24 20 14 13 14 8 5 6 6 6 5 6 6 6 6
17 21 13 21 23 27 23 29 31 34 41 41 45 44 33 33 31 24 19 15 12 13 8 7 7 7 5 5 6 7 8 9
20 23 13 23 15 16 20 31 32 37 36 38 35 37 39 38 33 25 19 19 17 14 8 9 10 8 7 7 8 9 9 11
18 23 20 20 16 14 21 21 26 30 37 33 37 42 40 39 32 26 23 18 18 14 11 10 13 13 13 12 13 14 14 13
5 17 20 18 23 16 21 30 38 38 38 38 37 39 39 40 30 25 23 21 18 14 13 14 16 18 16 14 15 16 16 16
6 6 11 16 20 16 21 32 28 35 39 40 39 35 30 34 34 26 23 23 21 17 16 18 22 17 14 15 17 19 16 17
6 6 7 7 6 13 24 25 23 25 31 25 29 27 29 29 27 27 26 27 23 21 20 23 25 20 24 22 22 23 24 24
7 9 10 10 10 9 11 18 26 25 23 21 31 30 34 37 33 34 30 26 27 29 24 22 20 25 24 27 29 28 27 29
8 10 11 11 11 13 14 15 16 19 20 22 26 28 32 35 35 35 30 30 22 21 27 26 27 30 29 31 31 30 29 31
9 9 10 11 12 13 14 14 16 16 16 17 21 24 27 31 35 32 30 30 28 29 33 33 34 34 31 30 30 31 32 34
10 10 11 10 12 13 15 17 18 20 22 23 24 25 25 25 27 27 30 33 33 32 34 38 37 37 31 32 32 33 35 34

GFSFLT2_700_spd_078.txt.gz
Wind_Speed
21 22 27 25 21 17 18 23 26 28 29 25 26 25 22 17 15 17 21 18 18 18 15 14 13 11 10 8 7 7 8 8
17 19 27 29 17 21 22 27 33 37 39 39 30 29 25 27 20 23 22 21 19 18 16 15 13 12 11 10 9 8 9 6
13 13 16 18 26 25 28 30 34 34 41 32 38 36 30 24 27 25 25 23 21 19 17 16 14 14 12 11 10 9 8 8
15 19 21 24 21 30 31 33 29 27 33 33 37 40 33 32 33 28 26 26 23 20 18 15 13 12 10 10 9 9 9 9
20 21 21 21 26 28 32 29 27 28 40 45 61 44 36 33 34 31 29 27 24 22 19 16 14 12 9 9 8 7 8 10
18 20 21 21 24 25 30 27 30 35 33 46 52 50 39 38 36 32 30 27 23 22 19 16 12 10 10 7 7 8 9 10
12 15 20 22 23 25 27 28 28 30 42 57 42 40 41 37 38 32 29 27 25 22 18 15 9 8 7 7 8 9 10 9
10 12 15 19 21 25 26 21 22 24 58 53 47 49 48 36 39 32 30 28 25 21 16 12 11 10 6 11 11 11 10 10
10 13 16 21 24 23 20 12 12 35 49 42 33 49 40 37 39 32 31 26 27 22 18 14 7 10 14 13 12 12 11 11
13 14 16 19 19 17 16 17 24 18 31 33 34 39 34 37 32 32 33 32 23 19 15 11 15 15 14 15 14 12 10 10
18 19 16 16 13 17 21 19 25 26 34 31 38 41 44 42 47 45 40 30 25 21 17 17 14 13 14 15 14 12 10 10
19 19 17 16 18 12 19 23 28 30 32 27 32 45 51 46 44 36 32 29 31 28 22 17 15 14 14 14 13 12 10 10
18 5 13 12 17 15 17 23 30 28 24 27 35 38 35 40 44 41 30 28 28 31 25 18 15 14 14 12 12 12 11 11
10 9 12 13 13 17 19 27 31 29 24 30 28 33 37 40 35 36 34 32 36 29 24 19 16 17 16 16 14 14 12 13
2 8 10 16 13 19 22 28 32 33 31 33 39 41 41 41 42 43 41 38 33 27 24 22 18 18 17 17 17 17 16 17
1 5 9 13 14 20 18 25 35 32 33 32 34 44 45 47 35 36 37 39 33 27 21 19 19 18 20 19 24 22 16 19
4 5 7 8 12 16 20 24 26 33 34 37 34 33 37 48 44 41 40 36 34 29 27 26 21 20 23 25 27 28 21 25
7 6 6 6 7 12 21 25 25 32 35 41 34 34 35 37 40 45 45 42 39 32 29 24 23 26 25 27 29 31 26 26
10 8 7 7 7 7 7 19 28 27 32 33 39 36 33 29 28 31 40 42 39 35 30 27 24 27 29 28 29 33 30 33
13 11 10 8 7 6 6 7 13 23 28 29 27 30 27 26 28 26 32 34 37 36 33 31 28 32 31 32 33 34 36 37

GFSFLT2_700_spd_081.txt.gz
Wind_Speed
22 23 23 24 27 37 37 23 26 22 19 18 25 24 20 17 18 17 16 16 17 16 16 16 15 14 13 12 10 10 11 10
24 21 19 20 24 24 17 11 18 25 22 18 20 25 25 22 18 17 16 16 17 18 18 16 15 13 12 11 11 11 11 11
19 19 17 18 16 22 19 17 16 24 21 25 28 24 24 24 21 20 19 19 20 19 18 16 15 15 14 13 13 11 12 13
15 18 16 17 13 14 22 22 22 22 27 27 29 33 29 29 26 28 21 21 21 20 19 18 16 14 14 14 12 13 12 12
15 19 19 19 17 20 20 24 26 26 27 32 37 39 32 32 29 28 26 25 24 23 20 19 17 15 14 13 13 12 10 12
18 19 20 23 22 23 25 23 28 30 31 32 34 36 42 38 33 32 29 28 25 23 22 21 18 16 14 13 11 11 11 11
18 18 19 20 23 27 28 28 29 32 33 31 29 35 40 32 36 37 31 29 27 26 23 20 19 17 15 13 13 13 10 12
13 14 16 18 21 25 27 28 31 32 34 35 38 45 45 36 36 33 36 32 30 27 24 21 18 16 14 13 13 12 12 13
12 13 16 19 23 23 26 25 28 26 31 38 38 43 46 39 41 35 34 34 32 28 25 22 18 16 15 14 12 11 13 13
13 14 16 20 23 25 26 23 19 22 19 41 43 46 46 43 43 39 34 33 31 29 26 22 18 16 15 13 13 13 12 10
16 19 19 23 19 16 17 15 10 18 24 42 46 51 44 53 45 37 33 34 33 28 25 20 16 15 15 14 14 14 13 12
17 21 23 18 13 10 14 12 14 26 25 26 39 31 26 39 46 38 38 41 39 36 28 22 16 18 17 16 16 15 14 13
16 20 9 11 14 18 14 24 20 20 23 28 23 22 38 41 40 51 54 45 36 32 22 25 23 22 20 16 16 15 14 13
14 10 4 11 10 14 14 16 18 27 24 26 20 20 43 47 49 45 37 31 37 30 27 27 21 20 18 17 16 16 14 14
10 7 6 9 12 15 15 15 20 27 28 21 16 18 27 40 42 42 44 38 34 33 31 29 25 22 20 20 18 18 15 18
8 6 7 9 12 12 15 15 19 26 25 23 15 18 24 33 36 41 38 38 34 30 35 33 31 26 24 24 22 18 20 18
9 6 6 8 11 12 17 16 19 27 24 24 24 21 26 31 41 44 44 39 36 32 42 38 32 31 26 20 18 21 21 23
9 7 6 6 7 10 16 17 22 26 28 23 23 27 24 31 42 45 41 42 41 41 36 35 33 32 30 25 24 24 24 24
11 10 8 7 7 6 8 14 20 23 23 28 26 28 29 27 35 41 42 39 37 36 39 37 34 32 31 27 26 27 23 25
14 13 11 9 8 6 6 7 14 21 24 29 25 21 26 28 26 27 40 44 38 40 40 40 36 35 34 31 28 28 26 28

GFSFLT2_700_spd_084.txt.gz
Wind_Speed
25 22 22 22 26 25 32 32 28 28 32 44 29 25 22 17 18 18 16 18 16 15 15 16 16 17 15 12 12 9 10 12
27 26 23 21 22 21 24 26 26 31 23 32 28 24 28 22 22 18 21 18 16 16 17 17 17 16 15 14 12 12 10 11
23 21 17 18 19 16 16 12 8 6 17 22 21 16 19 21 19 23 23 19 18 18 19 18 18 18 17 18 17 14 12 12
19 16 16 15 17 11 12 11 12 12 17 27 30 20 13 21 22 22 20 21 19 20 20 19 19 20 20 17 15 15 11 14
18 15 15 18 16 14 13 10 15 16 12 13 22 23 21 19 24 31 26 23 23 23 22 21 20 18 18 17 15 14 11 12
18 17 16 18 18 16 17 16 13 16 18 19 23 24 23 21 26 28 30 26 25 24 24 22 20 19 19 16 17 12 13 14
12 15 17 17 19 22 19 17 18 18 22 22 24 23 26 31 27 27 37 30 24 26 25 24 22 21 18 19 18 12 14 12
9 9 11 14 17 19 21 22 21 21 23 27 28 31 29 35 44 37 33 30 28 27 27 25 23 22 20 18 18 11 13 14
10 10 11 14 16 18 20 23 27 29 28 30 32 32 33 26 35 40 34 31 31 30 28 26 25 23 20 20 16 14 13 13
13 14 15 19 20 21 22 23 24 26 29 30 32 34 31 29 33 37 33 37 36 32 28 28 26 23 21 18 16 15 11 11
17 16 19 23 26 26 26 24 24 24 29 29 28 28 41 44 43 34 31 37 39 34 32 30 26 24 21 18 16 13 11 11
18 17 22 24 22 18 13 16 16 15 20 21 28 23 40 47 39 42 42 40 36 33 34 32 29 25 20 18 13 14 14 13
15 18 20 14 3 6 8 7 8 4 7 19 29 37 46 42 40 40 45 45 37 35 36 31 30 23 14 20 17 16 16 16
12 16 15 10 6 8 7 8 12 8 20 21 14 20 23 34 28 49 45 42 43 44 42 32 24 29 30 20 22 20 19 18
12 12 13 9 6 7 8 11 15 16 19 19 17 20 16 17 30 48 45 41 40 40 34 33 26 27 24 23 24 23 19 19
12 11 10 10 8 3 7 8 8 12 13 17 16 8 5 9 30 42 47 44 39 41 34 34 33 28 25 24 24 24 23 21
13 10 7 8 6 5 6 8 9 9 12 22 15 11 9 16 22 38 42 42 42 40 35 36 32 27 26 28 27 24 25 21
13 11 7 7 5 4 4 6 9 11 15 17 15 14 14 15 21 29 36 38 38 38 37 32 29 31 30 30 30 28 25 24
13 12 9 8 5 5 2 4 6 9 12 16 16 11 14 12 14 26 32 31 35 39 37 34 35 39 36 37 32 32 29 27
14 14 12 10 7 6 3 1 4 4 9 15 16 19 13 14 15 14 30 39 42 43 39 33 33 38 43 39 32 31 32 32

GFSFLT2_700_spd_087.txt.gz
Wind_Speed
24 24 22 23 25 23 25 24 30 33 39 39 48 20 25 22 24 24 21 22 20 15 17 16 15 14 15 15 12 12 13 14
26 23 23 24 25 23 21 25 29 31 35 34 27 29 30 25 21 24 25 22 20 17 17 18 17 16 16 15 12 13 13 13
26 24 18 18 19 17 19 23 23 17 16 28 36 29 33 30 24 20 24 25 20 19 20 19 18 18 17 16 16 14 14 14
23 20 17 13 12 15 18 14 16 9 3 6 25 41 27 27 19 21 21 23 23 21 21 22 20 20 20 19 14 15 15 15
21 17 15 11 12 15 16 13 14 11 9 10 27 25 21 12 18 29 26 27 24 25 25 23 22 24 22 20 14 15 15 15
18 15 14 12 11 14 15 16 11 15 12 10 8 9 17 13 15 26 28 28 29 26 26 25 25 24 22 21 15 15 17 15
14 13 8 11 11 13 15 15 15 14 16 16 16 18 20 19 14 13 22 28 27 27 27 27 28 25 23 20 16 16 16 16
12 11 8 7 8 10 12 15 18 17 18 17 18 21 21 22 21 17 21 36 29 29 29 29 28 25 25 21 17 18 19 18
12 11 10 10 12 12 13 15 18 21 21 21 21 20 26 26 22 22 21 29 35 32 32 32 30 27 27 23 20 17 17 17
13 13 14 14 15 17 18 20 22 23 26 26 26 26 27 27 26 20 30 38 42 33 32 31 29 28 28 24 20 17 17 17
14 14 16 18 22 22 22 23 25 25 27 30 32 32 31 29 32 21 37 39 43 37 35 33 31 31 28 25 20 18 18 17
15 14 15 17 20 18 13 14 19 26 25 29 31 32 34 32 39 36 40 35 40 40 39 37 33 31 29 25 21 18 16 16
16 14 14 15 14 11 6 5 8 13 18 21 21 25 29 35 46 48 34 31 42 41 39 37 35 31 30 26 20 16 12 14
15 13 14 12 10 9 8 8 8 13 15 16 17 19 29 29 42 44 43 39 41 40 37 38 38 33 28 26 18 19 24 19
15 12 14 10 8 6 7 3 4 9 11 16 7 4 21 43 43 40 34 43 42 42 40 41 37 35 31 24 26 34 24 24
15 13 12 9 6 4 3 5 5 7 9 8 9 7 17 21 24 36 26 42 48 44 41 37 33 36 30 30 28 23 24 24
15 14 11 8 4 3 4 4 8 7 15 18 16 13 16 16 22 29 33 43 45 48 47 42 42 32 28 27 26 26 26 25
15 13 11 7 4 2 2 3 4 5 16 24 21 14 11 11 19 24 27 45 44 42 33 34 37 34 33 30 30 30 31 30
14 13 10 7 5 3 1 2 1 4 12 17 21 17 14 11 10 12 20 26 34 37 37 39 39 36 38 35 31 34 31 28
14 13 10 9 6 4 2 2 3 1 7 20 18 13 10 9 10 12 19 25 31 36 40 43 39 38 31 27 33 32 35 35

GFSFLT2_700_spd_090.txt.gz
Wind_Speed
23 21 21 22 24 25 25 25 25 27 29 31 33 38 28 27 23 30 26 22 22 18 18 18 18 17 15 14 14 14 15 15
24 24 23 23 24 25 26 26 26 27 28 32 34 36 32 37 27 25 27 31 22 19 19 19 19 18 16 16 16 16 15 15
23 23 21 22 21 23 23 24 24 26 29 31 35 35 37 36 34 31 33 29 25 21 20 19 21 19 17 16 16 16 16 14
20 19 18 16 18 18 19 19 20 24 22 22 19 35 36 40 33 29 36 34 31 24 22 23 21 20 17 17 15 16 15 15
17 16 16 12 16 17 16 16 18 20 20 21 26 23 29 35 33 30 34 34 32 30 26 26 25 21 19 19 18 17 16 16
15 15 15 10 14 16 17 18 17 17 17 14 7 32 30 31 27 22 26 33 33 27 24 26 25 22 21 18 17 16 17 18
14 13 12 7 13 16 17 18 18 18 15 15 11 12 20 16 12 7 24 30 30 29 28 27 27 24 23 19 19 18 19 20
15 13 12 8 6 11 16 18 18 19 18 17 16 16 19 22 14 11 15 32 32 31 29 28 30 28 25 22 21 20 21 22
15 13 13 11 9 10 13 16 19 22 22 20 20 21 20 24 15 15 17 17 31 31 31 32 34 30 28 26 23 20 22 22
14 14 15 15 14 13 15 19 20 22 24 25 24 23 22 27 21 23 16 25 25 35 35 36 35 32 30 26 23 22 22 22
14 15 16 16 16 16 17 22 25 25 25 27 26 25 24 21 33 22 28 31 27 40 38 35 35 34 30 27 23 22 22 22
14 16 17 16 17 16 14 15 22 27 28 30 31 31 35 32 34 28 27 33 32 42 41 38 35 34 32 26 25 22 22 21
13 16 16 16 16 14 12 10 11 19 27 30 34 33 32 38 30 39 32 28 43 44 41 38 39 38 34 32 29 22 20 19
14 15 15 16 14 12 11 8 7 10 15 23 29 33 38 41 36 39 41 34 47 49 43 42 38 39 38 34 30 26 24 21
14 14 14 14 13 11 8 4 4 10 10 12 19 23 31 36 40 38 49 37 44 36 45 43 44 41 37 33 32 32 26 25
15 15 15 13 12 10 8 5 4 8 13 20 21 24 22 29 30 28 52 43 45 36 43 43 42 39 37 30 30 30 23 24
14 15 15 13 11 10 8 7 6 6 15 21 18 21 15 16 31 43 40 31 32 40 37 40 38 41 40 41 35 32 27 25
16 16 14 12 9 8 7 7 5 4 9 17 18 14 14 17 26 27 31 25 39 40 42 39 36 34 34 34 35 28 30 26
16 15 13 11 8 7 6 6 5 5 6 13 21 17 17 16 13 16 21 24 29 32 39 42 41 39 43 37 32 32 29 30
14 16 14 10 8 7 4 4 4 4 4 12 24 22 18 14 14 17 25 34 37 36 42 36 44 45 38 40 37 36 32 32

GFSFLT2_700_spd_093.txt.gz
Wind_Speed
18 19 18 19 21 22 24 25 25 26 28 30 34 35 34 25 22 27 25 27 25 24 22 21 17 17 15 14 14 13 13 13
23 22 20 21 22 23 24 25 26 26 27 27 29 35 39 38 26 33 32 29 27 24 23 21 21 18 16 15 14 14 14 13
22 22 22 20 22 25 25 26 28 28 28 28 30 31 31 34 30 26 37 34 30 24 23 21 21 19 18 17 16 15 13 14
19 20 20 18 20 22 25 25 26 26 25 26 30 32 28 33 32 30 39 30 30 27 24 24 23 21 20 19 18 16 14 14
18 19 17 17 16 18 22 20 21 21 22 23 24 28 35 29 33 31 35 32 29 29 27 26 24 22 20 20 20 16 14 16
17 19 16 15 13 15 18 18 19 19 19 20 26 31 39 32 44 40 39 32 37 35 32 30 26 23 22 20 20 18 18 16
17 19 16 14 12 14 18 17 18 19 19 20 23 9 18 26 30 42 42 38 36 32 31 30 26 23 23 21 18 16 18 18
16 19 16 14 13 12 16 19 19 21 20 20 17 8 13 26 31 27 34 34 32 32 31 29 25 25 25 22 20 20 20 19
16 17 16 16 14 15 16 16 18 20 21 22 18 14 4 12 20 11 17 32 32 32 30 29 26 27 25 23 23 22 21 20
15 15 16 17 16 18 18 19 20 21 23 23 21 20 18 21 19 17 14 28 32 31 31 30 30 29 26 26 24 24 23 20
12 14 16 17 17 17 19 22 24 24 25 25 26 24 24 27 30 19 22 18 27 31 33 33 33 31 28 27 25 23 22 22
13 14 16 17 17 17 19 21 21 24 26 27 30 27 27 28 29 23 28 22 26 21 34 36 34 30 29 28 26 24 22 22
13 13 15 16 17 18 19 18 18 17 21 29 26 32 31 35 28 29 34 21 31 29 33 39 38 36 35 33 31 27 25 21
16 13 13 15 16 17 16 16 14 14 15 24 32 33 32 35 38 29 32 32 35 39 38 41 40 38 39 36 35 31 26 24
16 13 13 15 15 16 15 13 12 13 13 12 24 34 37 36 41 33 39 34 42 40 38 43 44 44 41 38 37 32 32 30
20 14 13 14 15 15 14 12 11 13 13 14 19 25 33 35 42 40 39 31 32 40 40 45 43 43 43 40 35 31 31 28
22 14 13 14 13 13 12 12 10 12 14 14 16 24 27 33 35 41 37 44 38 52 44 48 50 43 44 45 41 32 29 27
25 17 13 14 12 12 11 11 9 9 12 17 20 21 22 25 25 30 29 35 45 46 44 44 41 52 54 34 28 36 38 32
24 18 13 14 12 10 9 10 9 8 9 15 21 21 22 22 27 30 18 27 42 45 39 35 41 40 29 30 34 40 36 38
24 16 14 15 12 11 8 7 8 6 6 9 19 21 15 14 9 16 20 20 28 28 28 30 32 35 38 43 37 30 34 39

GFSFLT2_700_spd_096.txt.gz
Wind_Speed
14 18 17 16 17 18 19 20 23 25 25 27 29 30 29 28 23 27 32 24 21 24 24 23 22 20 19 18 16 15 13 12
15 15 17 18 18 20 22 23 24 26 26 27 27 27 28 31 30 31 33 15 28 24 25 23 23 22 19 17 17 15 13 11
16 15 16 19 20 22 25 25 25 26 26 27 27 27 28 30 28 30 25 19 32 31 28 26 23 21 21 18 16 15 13 12
16 14 16 19 19 22 24 25 25 25 27 28 28 29 29 29 27 27 26 20 27 33 29 28 25 24 23 20 18 16 14 12
15 16 18 19 19 20 19 18 20 23 25 26 26 28 30 32 30 29 27 32 33 36 34 30 26 23 21 21 19 16 15 15
16 17 20 20 18 17 16 15 15 17 21 24 24 24 24 30 34 31 28 35 38 38 35 26 25 23 23 22 20 20 16 16
16 17 21 20 17 15 14 14 13 17 22 23 23 22 23 29 29 33 35 37 39 33 34 29 26 24 25 24 20 19 18 17
16 18 21 20 17 15 15 12 13 17 21 24 22 20 21 15 18 35 38 33 43 38 32 27 25 26 25 22 21 19 18 18
20 18 20 18 17 17 17 15 14 16 19 24 22 20 17 3 13 25 43 28 33 31 29 27 25 26 25 23 19 19 21 19
13 17 18 17 17 18 20 18 18 18 20 23 21 19 15 7 9 21 29 38 33 34 31 28 26 25 25 28 28 24 22 19
16 17 18 18 17 19 19 17 21 20 21 24 24 20 17 15 10 10 15 19 33 32 31 29 27 26 26 25 25 24 21 19
19 21 19 18 17 19 18 18 20 20 17 22 28 24 22 21 21 18 20 19 28 31 28 25 24 24 27 28 26 24 22 21
21 21 19 17 16 16 17 17 18 19 18 18 27 27 27 25 25 31 26 23 22 26 32 32 30 30 28 28 29 28 27 25
25 20 20 17 14 16 16 16 16 17 16 15 20 25 29 25 28 32 33 32 26 29 29 27 30 32 32 32 33 33 31 27
24 21 19 18 14 15 16 14 14 14 14 15 15 26 26 27 31 27 34 36 26 30 39 34 34 35 36 38 38 38 31 27
23 22 21 19 15 14 16 14 13 13 14 13 14 18 34 34 32 32 34 39 34 32 36 42 36 39 39 40 38 34 32 29
22 21 21 18 15 14 15 12 12 12 14 13 15 18 23 34 39 36 33 35 41 36 35 40 43 40 40 40 39 38 37 31
27 23 21 18 15 13 15 12 10 10 13 14 14 13 19 24 29 34 41 36 36 37 34 35 39 42 41 41 42 42 48 52
24 28 22 19 15 13 14 12 9 9 12 14 14 12 14 19 22 27 31 38 38 36 38 48 35 44 39 42 42 45 48 48
25 25 23 19 15 13 12 10 8 8 11 13 10 11 11 11 16 19 23 23 31 24 40 41 44 44 37 41 45 43 38 27

GFSFLT2_700_spd_099.txt.gz
Wind_Speed
9 10 13 12 12 14 15 17 17 20 21 24 24 23 27 24 22 25 23 23 24 34 28 20 18 20 18 19 18 17 16 14
12 10 11 13 15 17 17 18 21 21 24 25 25 24 25 22 24 22 22 24 27 30 30 22 20 22 21 21 20 19 17 16
13 10 11 13 16 20 20 21 23 24 25 25 25 26 24 22 23 22 22 26 27 20 27 24 24 24 23 22 20 19 17 16
12 12 12 13 16 20 22 23 22 24 26 24 25 24 24 24 24 25 25 25 21 22 32 24 25 25 26 23 21 20 16 16
13 15 14 13 16 19 21 20 17 19 23 24 24 25 26 25 25 26 24 24 22 24 28 29 28 26 23 22 22 19 17 16
16 16 15 14 16 17 19 17 12 14 20 23 23 21 22 24 26 25 29 28 26 27 29 31 29 25 23 22 22 19 17 17
16 16 16 16 16 16 17 15 11 13 17 18 18 19 22 23 23 26 32 34 29 33 26 33 29 26 25 24 22 21 19 17
15 15 16 17 16 16 16 16 12 12 16 16 19 20 20 21 21 30 26 36 30 33 31 38 30 28 26 25 24 23 20 18
15 14 15 16 16 17 16 16 15 14 16 17 20 20 20 20 19 19 25 31 34 31 34 37 35 28 26 26 24 22 20 19
16 13 14 16 16 18 18 18 16 16 17 18 21 19 19 21 17 13 19 34 33 33 40 33 32 25 25 26 24 21 18 18
19 16 15 14 16 18 19 19 17 16 17 19 23 21 19 20 17 12 17 29 32 38 38 35 31 26 28 26 26 24 21 21
23 21 19 16 16 19 18 17 18 17 16 16 20 21 21 21 17 10 5 22 32 30 37 35 30 25 26 26 27 25 26 23
29 24 20 19 17 16 16 16 17 17 15 15 18 19 20 23 20 17 10 7 26 29 34 33 29 37 27 28 30 29 28 26
34 27 24 21 18 16 16 16 16 16 15 14 15 17 24 27 25 22 21 18 15 23 29 29 23 24 28 29 31 31 30 29
34 28 26 22 19 17 15 15 15 14 14 13 14 15 16 22 29 27 26 28 24 27 26 29 26 30 33 32 34 35 31 29
35 29 26 24 21 16 15 15 14 13 13 13 12 14 14 25 24 29 28 28 37 33 26 27 26 27 29 34 34 32 32 32
34 31 28 25 23 17 16 15 14 12 11 12 11 12 16 20 28 25 32 28 33 39 37 32 32 37 35 33 30 37 35 31
31 30 27 25 22 17 15 14 13 11 10 11 11 12 15 21 27 33 31 31 30 33 34 36 39 32 36 35 36 39 40 38
32 28 25 24 23 17 16 15 13 10 9 10 10 11 13 14 18 21 29 35 32 34 34 39 34 36 33 35 35 38 38 39
30 29 29 26 23 18 17 16 12 9 6 8 10 7 9 13 16 18 21 28 32 35 31 28 33 35 35 36 36 40 40 36

GFSFLT2_700_spd_102.txt.gz
Wind_Speed
8 9 8 8 8 10 10 9 11 13 15 18 20 20 19 22 21 25 21 16 18 22 26 31 23 18 18 18 17 17 17 18
9 11 8 8 9 11 12 12 12 16 18 20 22 22 23 23 23 25 23 20 16 20 24 18 26 27 20 18 19 19 18 18
10 13 11 11 11 12 13 13 14 17 21 23 23 24 24 25 24 24 22 20 22 23 24 26 29 27 21 19 20 21 19 19
13 14 14 13 12 13 15 14 14 18 21 23 24 24 24 24 24 23 23 21 23 26 26 28 25 27 25 22 22 22 21 21
17 15 17 15 14 14 15 14 13 17 18 20 23 22 22 24 25 25 24 23 25 25 29 24 30 26 24 23 24 25 23 21
19 18 18 16 15 15 15 14 11 12 12 16 19 22 24 24 23 23 23 22 23 29 22 21 27 26 25 26 26 24 22 21
18 19 19 18 17 17 15 15 11 11 12 14 17 20 21 21 21 22 23 24 25 27 26 22 28 26 26 27 26 23 21 21
18 20 20 19 18 17 15 15 12 12 14 13 16 18 20 21 22 22 22 24 29 30 26 27 30 28 27 25 25 24 20 20
18 19 20 18 18 18 16 15 13 13 17 16 17 19 20 22 22 22 21 24 24 29 33 29 33 31 28 27 24 25 23 21
21 20 20 18 18 18 17 16 15 14 16 17 20 19 20 22 24 22 20 22 21 34 34 34 27 37 30 29 28 27 25 23
27 23 21 20 18 17 17 17 17 15 16 19 20 20 21 22 23 20 22 25 22 31 35 32 38 38 31 29 28 27 26 23
31 27 25 23 21 17 16 16 16 14 16 20 20 20 22 22 23 20 20 13 19 35 37 37 35 39 32 30 29 29 29 26
35 32 28 25 24 18 15 15 16 14 16 19 19 18 19 25 23 19 16 8 14 25 32 42 35 40 34 32 29 32 30 26
41 35 33 29 26 22 17 17 18 14 16 18 18 17 14 18 22 23 18 13 11 25 25 43 40 43 35 33 33 33 32 28
43 39 36 35 29 26 21 18 18 15 16 18 16 16 15 18 25 25 25 18 11 12 21 37 39 36 30 35 37 33 28 27
43 37 38 37 33 28 22 17 18 14 16 18 15 15 15 17 20 29 27 23 25 19 16 19 23 28 26 25 37 35 28 31
43 38 38 38 35 29 24 18 18 15 15 17 16 13 15 17 20 23 28 28 26 28 24 26 29 30 28 26 30 34 30 32
40 38 37 37 34 30 26 20 19 15 15 16 16 14 15 18 19 25 25 32 28 27 30 33 29 30 31 31 29 31 28 31
37 38 37 36 33 30 28 22 19 16 15 15 16 14 14 17 18 20 27 26 31 30 30 36 40 36 35 29 31 36 33 39
35 37 38 36 32 31 29 24 20 16 15 15 15 13 13 14 16 20 23 32 33 26 27 30 31 31 41 35 35 35 35 40

GFSFLT2_700_spd_105.txt.gz
Wind_Speed
6 4 4 5 5 5 5 6 8 10 11 12 17 17 17 16 16 15 18 24 15 18 20 22 20 20 19 18 17 15 16 21
7 7 6 7 7 7 8 7 9 11 13 14 17 18 20 21 21 20 20 21 17 20 23 27 18 21 22 22 19 18 21 14
10 10 11 10 10 9 10 9 10 12 14 16 19 22 22 24 24 23 21 21 19 20 25 28 26 17 29 24 21 20 20 24
14 13 13 15 12 11 12 12 11 12 14 15 19 23 23 25 26 24 23 22 21 23 27 27 25 26 26 28 24 24 21 26
17 16 17 17 16 14 14 14 13 12 12 13 16 20 23 23 24 23 24 23 24 24 24 26 23 24 32 29 24 22 22 27
20 20 19 19 19 14 16 15 14 13 13 11 13 18 19 22 23 23 25 25 25 25 20 23 27 20 30 28 26 22 24 28
23 23 21 22 21 18 19 17 15 14 15 12 11 16 18 23 26 26 26 24 25 23 24 23 25 27 32 28 27 21 25 28
29 27 22 23 23 21 21 18 16 13 15 15 13 15 19 22 25 26 24 23 23 23 25 21 22 27 29 29 28 27 34 26
33 27 23 24 23 22 22 19 16 15 15 16 15 17 17 21 24 24 23 23 24 24 26 28 28 23 31 30 28 31 29 28
35 32 26 25 24 22 22 21 18 16 16 18 16 17 19 22 25 24 23 23 25 24 26 23 29 26 31 32 31 28 29 26
34 34 28 26 25 23 22 21 18 19 18 19 17 17 20 22 25 25 24 26 27 27 30 27 36 33 34 31 32 27 27 25
36 38 33 29 27 26 25 20 17 18 18 19 19 18 19 22 24 25 25 24 25 25 26 25 35 36 36 32 31 25 27 27
44 41 38 33 30 28 26 18 18 18 18 19 21 18 19 20 23 22 25 24 19 21 23 26 31 34 42 38 27 29 28 27
45 44 42 35 31 30 29 22 21 20 20 19 20 19 19 19 21 23 27 24 20 18 16 28 34 45 47 40 34 30 28 31
49 46 45 42 34 33 32 27 26 23 20 20 20 19 18 15 19 20 20 23 20 15 20 25 37 47 38 41 37 35 27 24
43 47 47 45 40 36 32 31 26 21 22 20 20 19 17 19 20 17 23 22 19 12 11 23 30 46 38 43 36 36 34 30
40 46 48 50 46 40 35 33 29 26 24 20 19 20 18 20 21 20 26 25 25 25 14 10 32 37 31 29 25 22 28 28
36 45 48 48 45 40 37 34 32 28 23 22 20 19 19 20 22 21 23 26 26 24 25 21 20 31 24 24 25 23 20 32
40 42 44 48 43 40 38 36 35 29 24 23 22 18 20 21 23 23 21 28 29 31 25 26 28 27 28 27 26 26 27 29
35 42 42 45 41 39 38 38 36 30 25 23 22 18 19 21 21 22 21 23 27 30 27 25 35 35 32 31 30 34 29 28

GFSFLT2_700_spd_111.txt.gz
Wind_Speed
10 7 4 3 2 3 4 5 6 7 8 8 8 10 13 14 14 15 13 15 12 16 15 12 11 17 8 9 13 13 13 13
10 9 6 6 4 4 5 5 5 6 7 8 9 11 13 15 16 16 15 16 11 14 16 16 13 14 18 22 19 19 20 19
13 11 10 10 8 6 6 6 6 5 6 8 9 12 14 16 17 17 18 18 17 16 16 16 14 16 15 18 22 27 25 21
17 16 14 12 12 9 8 7 7 7 6 8 9 11 15 17 19 19 20 22 19 19 19 18 15 16 18 20 13 26 26 20
22 20 17 15 14 15 11 10 9 9 9 8 10 10 12 16 20 21 20 21 21 20 20 17 15 15 17 19 21 20 28 27
26 25 22 19 17 18 14 14 12 12 11 10 10 10 10 13 16 20 21 21 21 21 19 18 16 18 18 19 22 20 27 32
28 29 25 21 20 17 18 16 15 14 13 11 11 11 10 12 13 17 19 20 21 21 19 18 19 20 21 17 23 21 27 37
30 28 25 26 25 19 19 19 18 17 15 13 12 12 12 13 16 15 18 20 22 22 20 21 22 23 24 21 25 21 25 34
33 30 28 27 28 24 19 21 20 19 17 16 13 14 13 14 17 17 19 20 22 24 22 22 23 24 26 20 21 20 31 30
35 34 32 31 30 29 23 20 21 20 19 19 16 16 16 15 17 18 19 22 23 23 22 23 24 25 22 25 25 31 31 28
36 38 38 33 31 30 28 23 22 22 21 19 19 18 17 16 17 19 20 23 23 23 23 23 24 23 17 22 19 30 28 29
37 38 39 34 34 33 31 29 24 23 22 19 20 19 18 17 17 20 19 22 24 23 23 24 24 24 26 24 25 31 29 32
38 37 37 33 37 37 33 33 28 24 22 20 20 19 19 18 18 21 20 21 23 23 25 26 26 24 26 28 28 34 34 34
41 42 40 38 37 38 37 34 33 28 24 22 24 20 19 19 20 20 20 21 23 22 25 26 27 27 24 26 29 42 34 34
42 43 40 37 36 39 40 38 35 34 29 25 27 22 21 20 20 21 20 21 22 20 24 26 27 26 27 28 41 44 41 35
31 39 46 39 39 42 47 45 39 36 32 27 28 27 25 21 21 21 21 21 22 20 20 24 25 26 25 37 38 46 47 38
39 33 37 43 45 43 45 49 40 38 33 30 29 30 29 25 21 22 21 22 23 21 20 23 22 19 24 34 43 44 39 32
37 41 32 38 42 43 48 47 38 39 35 32 30 32 32 28 22 21 22 23 23 21 19 21 20 17 18 28 36 43 43 36
45 40 40 41 36 39 42 44 40 37 35 34 32 31 32 29 23 22 22 24 23 21 21 23 23 23 16 20 36 33 40 37
47 57 45 48 48 37 37 39 38 34 36 33 33 32 31 28 25 22 22 24 23 20 22 21 23 19 21 19 29 34 33 26

GFSFLT2_700_spd_114.txt.gz
Wind_Speed
14 10 9 8 7 6 5 6 7 8 9 9 9 12 14 15 16 17 16 14 14 14 14 13 10 8 12 7 9 14 12 12
16 12 10 8 7 6 5 6 6 7 8 8 10 11 13 15 17 17 18 16 15 13 12 15 12 11 13 13 9 11 14 16
16 13 12 11 9 7 6 7 7 6 7 9 10 11 13 14 17 18 19 19 18 16 13 13 13 13 13 15 17 19 25 22
17 15 15 14 13 10 8 8 8 8 8 8 9 10 13 15 17 19 20 20 20 18 16 14 14 14 14 18 17 15 17 26
20 18 19 18 16 14 11 11 10 10 9 8 9 9 11 13 16 20 21 21 22 21 17 14 14 15 16 15 18 14 15 25
25 24 23 22 19 18 15 13 13 12 11 9 10 10 10 11 13 16 19 21 21 22 19 17 16 16 18 18 19 18 17 14
33 29 26 26 24 22 20 16 14 15 14 12 12 10 11 12 12 14 16 19 20 21 20 18 17 18 20 21 21 19 22 22
23 26 23 29 27 26 23 19 17 17 17 15 13 11 11 12 13 13 14 16 18 20 20 19 19 20 21 24 24 25 23 23
25 22 23 23 24 27 27 22 19 19 18 17 16 13 12 12 14 15 15 17 19 22 22 22 23 23 23 24 25 23 25 22
30 27 24 24 24 25 27 27 23 22 21 19 17 15 14 14 15 16 16 18 19 22 24 26 24 23 23 25 24 28 24 23
34 33 30 28 28 28 27 25 28 27 24 21 18 17 15 16 15 16 16 18 20 21 23 24 25 23 24 23 23 22 28 24
43 39 38 33 32 32 31 29 27 29 26 24 20 18 17 16 16 16 17 18 20 21 22 23 25 24 25 25 26 23 26 21
49 46 40 40 36 37 34 32 27 24 29 28 23 20 19 17 17 18 17 18 18 20 21 24 26 26 27 27 28 27 24 21
37 42 41 39 34 30 34 32 30 28 27 31 26 23 23 18 18 18 18 19 19 21 21 22 28 28 28 28 29 26 28 26
36 36 37 39 36 35 38 36 37 32 29 32 30 28 27 22 21 19 19 20 20 20 19 21 26 29 29 31 31 36 30 25
40 38 37 35 40 37 35 39 40 33 30 29 33 32 30 28 24 21 20 21 21 21 20 20 26 29 29 32 32 33 32 38
40 39 37 36 40 38 42 39 36 32 31 33 36 38 34 33 28 26 22 21 23 22 22 21 24 27 26 25 31 34 36 38
40 40 40 42 39 39 40 41 36 32 33 36 38 39 36 33 30 28 23 22 23 23 23 24 24 27 26 24 22 22 35 35
40 38 37 43 46 44 40 43 39 33 30 37 35 37 35 32 30 29 24 22 23 25 24 25 24 27 23 25 17 25 27 35
43 44 41 38 38 44 46 44 37 36 29 32 32 35 34 34 31 28 26 23 23 24 25 25 23 27 24 23 18 18 28 40

GFSFLT2_700_spd_117.txt.gz
Wind_Speed
11 11 10 7 5 4 5 6 7 8 9 9 11 11 13 14 16 17 17 16 14 13 11 11 11 9 9 9 11 10 10 12
10 11 10 8 7 5 5 5 6 7 7 8 10 11 12 14 17 18 18 17 16 15 14 13 12 10 9 10 14 13 12 12
16 12 12 9 9 8 7 6 6 6 7 8 9 11 12 14 16 18 19 18 18 17 15 13 12 12 11 9 10 12 14 15
16 16 15 12 11 11 10 8 6 6 7 7 9 11 12 14 16 17 19 18 19 19 19 16 14 13 13 11 14 16 14 16
17 18 17 15 14 14 14 11 8 6 7 7 9 11 12 12 15 17 18 18 19 20 20 18 16 15 15 14 15 15 15 14
20 20 21 19 18 17 17 16 12 9 8 8 9 11 13 12 14 15 16 16 18 20 20 21 20 19 18 17 18 17 16 15
22 25 25 23 22 21 21 20 16 13 12 9 10 11 12 14 13 14 14 15 17 19 20 21 22 21 21 20 19 19 17 16
23 24 29 28 27 26 24 23 20 18 17 13 12 12 12 13 14 14 14 13 14 17 20 21 22 24 24 23 22 23 21 21
27 24 23 25 27 26 29 25 24 22 21 18 15 14 13 13 13 14 14 15 16 18 20 21 23 25 26 25 25 24 24 22
27 28 21 20 20 22 22 23 25 24 23 22 20 17 15 14 14 14 14 15 16 18 20 22 24 26 27 27 27 27 25 23
30 32 29 25 24 22 21 22 23 23 26 25 24 21 18 16 14 14 15 15 15 18 19 20 23 25 26 28 28 27 27 24
35 36 34 32 30 28 28 28 26 25 23 25 27 24 21 19 16 15 15 14 14 16 18 20 22 24 25 27 26 28 29 24
45 44 42 41 38 35 32 32 31 28 25 24 26 26 24 22 19 16 15 15 14 15 18 20 22 23 25 29 29 31 30 28
45 46 38 45 48 43 40 34 33 33 31 28 26 24 25 24 24 19 17 16 16 16 17 18 20 22 26 28 31 33 31 28
45 38 34 35 36 38 38 38 35 39 39 33 29 25 26 27 28 23 20 18 18 18 18 18 20 21 24 28 33 35 30 28
42 41 36 37 37 38 36 34 37 38 34 30 29 26 24 26 30 30 25 22 20 20 20 19 20 21 23 26 31 33 35 31
41 42 39 36 37 40 36 35 34 36 34 29 29 29 28 27 28 34 32 29 24 23 22 21 22 23 24 26 28 32 34 33
40 40 38 37 38 38 39 40 38 36 37 39 33 31 29 30 32 35 37 34 29 25 25 24 23 24 25 27 28 28 28 30
38 38 37 37 38 39 41 38 36 41 35 39 35 31 29 28 29 33 37 34 32 28 27 26 25 26 26 26 27 26 27 21
37 37 36 38 38 38 40 39 40 39 37 34 35 36 30 27 28 32 34 32 34 31 29 28 26 27 27 26 25 26 28 25

GFSFLT2_700_spd_120.txt.gz
Wind_Speed
5 5 6 5 4 3 3 4 5 5 5 7 8 9 9 10 11 12 12 12 13 13 12 10 8 9 9 8 8 9 10 7
7 6 8 7 5 5 5 5 5 5 5 6 7 8 9 10 11 12 13 14 15 16 14 13 13 11 10 8 8 8 13 11
13 12 9 9 7 7 7 5 5 6 6 6 6 7 8 10 10 13 14 15 16 17 16 15 12 11 9 8 8 7 6 9
17 13 13 12 8 7 9 7 6 6 6 6 5 6 8 10 12 13 13 15 17 19 19 16 13 13 11 11 10 13 11 10
17 17 15 15 11 9 10 10 8 7 7 6 6 6 7 9 11 12 12 14 17 20 20 18 16 15 15 13 13 14 12 14
21 20 18 17 16 13 12 12 13 9 8 8 7 6 7 9 11 12 12 13 16 19 20 19 19 18 17 16 16 17 17 14
22 22 20 20 21 20 17 16 15 13 12 10 8 8 7 8 10 11 12 13 14 17 19 20 20 21 21 20 19 19 20 18
27 24 23 24 26 26 24 21 20 17 15 13 12 11 9 8 9 10 12 12 13 14 18 21 22 22 23 22 22 22 21 20
28 26 25 22 27 28 29 24 23 22 18 18 15 15 14 11 10 9 10 12 14 16 18 21 22 23 23 24 24 25 21 22
32 28 25 23 24 29 28 24 27 26 23 22 19 17 17 16 13 10 11 12 13 15 18 20 21 23 24 25 25 26 25 23
35 31 27 24 23 24 24 23 23 21 20 23 22 20 19 20 17 14 13 12 12 14 16 18 21 22 23 25 27 27 26 26
42 37 33 31 30 28 27 26 23 22 20 20 20 22 22 22 21 18 15 12 12 12 15 17 19 21 24 26 25 26 27 26
37 40 35 33 33 32 31 29 29 28 24 23 23 23 23 24 23 22 19 15 13 14 15 17 18 20 23 25 28 29 29 28
37 39 38 38 37 36 37 35 34 31 29 28 28 29 25 23 24 25 23 19 17 16 16 16 18 20 21 26 27 30 32 29
41 42 40 42 43 43 45 43 41 38 34 31 32 34 30 23 24 27 28 24 21 19 18 18 18 19 21 22 25 29 26 28
39 39 38 37 37 43 45 40 39 38 39 35 35 35 33 27 22 25 29 29 26 25 22 22 21 20 22 24 25 28 28 32
39 37 42 41 36 41 38 37 34 34 34 37 38 36 31 32 29 27 29 30 30 30 29 26 24 24 24 23 25 26 28 28
51 48 48 41 38 40 36 36 34 34 36 38 38 37 35 35 35 31 28 29 33 34 33 31 27 27 26 26 26 25 27 30
42 37 38 37 37 36 36 35 34 32 31 37 41 41 42 41 33 32 33 33 33 37 35 33 31 30 28 28 27 27 27 27
31 35 31 31 33 34 35 34 35 37 35 35 39 43 36 38 42 32 31 35 35 33 34 34 33 32 30 29 29 27 26 26

GFSFLT2_700_spd_123.txt.gz
Wind_Speed
9 6 6 7 7 6 6 6 6 6 6 5 4 4 6 6 7 8 8 8 7 7 6 5 7 8 8 8 8 9 9 9
12 8 7 8 7 8 8 7 6 6 6 5 4 5 5 6 7 8 8 9 9 8 9 8 9 11 11 10 9 7 8 12
16 12 9 11 11 10 9 8 8 7 7 6 4 4 5 6 7 8 9 10 10 11 11 11 10 10 9 9 9 8 7 8
18 17 12 13 13 11 11 10 8 8 7 6 5 4 5 6 7 8 9 11 11 13 14 14 13 12 10 9 10 10 10 10
23 19 17 15 16 13 11 11 10 9 8 7 5 5 5 6 7 7 9 10 11 12 13 15 14 15 14 12 12 12 13 13
29 24 22 17 19 17 12 11 12 11 9 9 6 5 5 6 7 8 9 10 12 13 13 16 17 18 18 15 14 14 14 15
33 27 26 21 20 19 17 16 15 14 12 10 8 6 6 7 7 8 9 10 11 12 14 16 18 19 20 19 18 17 17 17
38 31 29 26 22 21 23 21 19 17 15 13 10 9 8 8 8 9 9 10 11 12 14 16 18 20 22 22 20 20 19 19
45 35 33 28 27 26 27 24 23 21 18 17 15 13 11 10 10 10 10 10 12 13 15 17 18 20 21 22 21 22 22 20
47 41 36 32 28 29 30 28 26 25 23 21 20 18 16 15 13 11 12 13 12 13 14 17 17 19 21 21 23 24 24 24
50 47 39 33 31 33 31 28 25 26 28 27 24 23 21 19 18 15 15 15 13 13 13 15 16 17 20 22 23 25 26 26
53 50 41 35 33 35 31 30 28 28 26 25 23 23 24 24 21 21 19 17 15 14 13 14 15 17 20 22 23 24 25 25
55 55 47 41 40 37 32 30 30 29 27 28 26 24 23 24 23 25 24 20 17 17 17 15 14 17 20 22 23 26 27 27
53 54 52 45 42 38 37 38 35 32 30 27 26 26 27 25 24 24 27 25 22 21 19 17 16 17 18 20 22 24 23 25
48 48 48 49 47 46 41 37 36 35 34 32 34 32 31 32 28 25 27 29 27 24 23 22 19 19 19 20 22 22 21 22
43 40 39 39 40 40 40 39 38 39 38 37 38 35 35 36 36 31 27 28 31 28 27 26 24 24 22 22 22 23 23 26
41 41 40 41 40 41 41 38 40 41 42 42 42 42 42 40 39 36 32 28 28 31 31 31 30 28 26 24 25 25 25 27
43 45 43 41 35 34 34 32 35 36 35 37 41 41 42 44 40 38 40 33 26 26 31 34 35 33 31 29 28 27 27 29
45 47 46 39 34 39 41 30 31 34 35 34 39 39 42 39 40 39 39 39 34 32 30 32 34 36 36 32 31 30 30 29
38 42 49 50 48 41 35 34 30 34 36 37 36 35 35 37 39 40 42 44 43 50 39 34 36 38 38 35 33 31 31 31

GFSFLT2_700_spd_126.txt.gz
Wind_Speed
15 15 13 14 12 11 10 9 9 8 8 7 6 5 6 6 5 6 6 6 7 6 6 5 5 6 7 8 9 8 10 10
19 18 16 15 13 13 12 11 11 10 9 8 8 7 7 7 7 6 7 7 7 7 7 7 6 7 10 11 11 10 10 11
24 22 20 17 15 15 15 14 13 12 12 10 9 7 7 7 7 7 8 8 8 9 8 8 8 9 10 9 9 10 9 10
29 27 23 20 19 17 16 15 14 12 11 11 9 8 7 8 8 8 9 9 10 10 10 10 11 11 11 10 10 10 10 10
36 32 28 20 19 19 17 16 14 14 13 12 11 10 8 8 8 8 8 9 10 10 10 11 12 13 14 14 12 12 12 12
39 36 33 27 23 22 19 16 15 15 14 14 12 10 8 8 7 8 9 9 10 11 11 13 14 15 15 16 16 15 15 14
45 42 37 33 28 26 23 20 18 17 16 15 14 12 10 9 8 9 9 10 10 11 12 13 15 17 17 18 19 20 18 17
50 47 43 38 34 30 27 25 23 21 19 17 15 13 11 10 9 9 10 10 11 12 13 14 15 18 19 20 20 21 21 19
52 51 47 43 38 35 30 28 28 25 21 19 17 15 13 12 11 11 11 12 12 12 14 15 16 17 18 20 21 21 22 20
46 55 53 47 42 39 34 32 30 28 25 22 20 19 17 17 15 13 13 14 14 13 13 15 16 17 18 19 20 21 22 22
44 53 57 52 46 42 38 34 32 30 29 27 25 23 22 21 20 18 17 17 16 15 13 14 15 16 17 19 20 22 22 24
49 50 59 55 50 46 42 38 33 31 32 32 31 29 27 26 25 23 22 21 19 18 16 15 15 16 17 19 20 21 22 22
54 51 56 59 56 51 46 40 33 35 35 34 34 33 30 29 28 27 25 24 23 22 21 20 17 17 18 18 19 19 21 24
57 54 50 56 60 53 44 38 39 36 36 33 30 30 30 29 27 25 26 27 27 27 25 23 21 20 19 19 19 18 18 19
53 58 53 53 58 55 48 43 42 41 36 33 32 33 34 31 30 29 28 28 28 30 29 27 26 23 22 22 21 19 20 17
47 58 54 48 54 60 56 50 44 39 37 37 37 36 35 34 34 34 34 32 31 30 31 31 30 29 28 25 24 22 23 24
36 51 55 50 52 57 60 54 42 44 42 38 36 37 40 39 40 40 39 38 36 33 31 32 33 34 32 31 29 28 26 25
31 37 46 50 52 45 57 38 44 41 41 37 39 40 41 42 44 45 43 41 39 39 34 32 34 35 36 36 35 34 30 30
25 32 37 39 46 38 34 42 41 41 38 36 37 40 37 40 43 44 46 47 43 48 41 40 43 39 36 37 37 38 36 34
24 28 22 30 37 36 33 31 32 35 31 31 36 33 35 40 38 38 39 42 43 43 35 36 34 41 41 40 40 39 39 37

GFSFLT2_700_spd_129.txt.gz
Wind_Speed
21 20 18 18 17 16 15 13 12 11 11 9 9 9 8 6 6 5 6 6 7 7 8 8 7 6 7 5 6 6 9 10
24 23 21 20 20 19 17 16 14 14 13 12 12 11 10 9 7 6 6 8 8 9 9 9 9 8 7 8 9 9 10 12
28 26 24 23 21 21 20 18 17 16 15 15 14 13 12 10 8 8 8 9 9 10 10 10 10 9 8 9 7 8 9 9
31 30 28 27 25 24 22 20 18 17 16 15 14 13 12 11 10 10 9 11 11 10 11 11 11 11 10 9 8 7 6 11
34 35 33 31 29 27 25 23 21 19 17 17 16 15 13 12 11 11 9 9 10 10 10 11 11 12 12 11 10 12 7 15
30 38 39 35 33 31 28 26 24 22 20 18 18 16 14 13 11 11 11 10 10 10 11 12 13 13 15 13 12 14 7 15
22 34 44 40 36 35 31 29 27 24 22 20 19 18 16 14 12 11 11 11 11 11 11 11 13 15 15 16 17 16 16 19
30 34 42 46 42 39 34 32 31 28 24 23 20 19 17 15 14 12 12 12 11 10 12 12 14 15 15 17 17 18 19 19
33 30 44 48 47 43 41 36 36 30 27 25 23 21 19 17 15 13 12 11 11 12 12 13 14 15 16 16 17 18 19 21
38 30 34 47 51 50 44 42 40 36 32 29 26 24 23 20 18 15 13 13 13 13 13 13 14 15 15 17 17 19 20 19
37 38 36 46 51 53 50 47 44 40 37 32 30 28 26 24 21 19 17 16 15 15 14 14 15 15 15 16 18 19 20 21
46 48 44 37 51 52 54 52 50 44 40 36 35 33 30 28 26 24 22 20 18 18 16 17 17 17 17 17 17 18 20 20
53 56 54 40 49 48 58 58 55 46 43 39 40 35 33 32 29 28 27 25 23 22 21 21 21 20 20 19 18 18 18 20
53 55 48 49 37 49 54 60 56 49 45 44 42 40 38 38 36 34 31 29 28 26 26 25 23 23 23 21 20 20 19 18
43 51 50 46 50 41 49 57 58 56 51 49 45 41 40 39 36 36 32 31 30 29 28 28 27 26 27 25 25 23 23 22
37 44 51 49 57 51 54 52 63 60 55 46 43 42 40 37 34 34 32 32 32 31 29 29 30 31 31 30 29 27 27 20
26 35 47 47 56 61 54 52 60 58 55 50 47 44 40 37 36 34 33 33 33 34 31 32 32 34 34 34 34 32 29 31
23 28 35 37 49 58 55 51 54 53 55 51 48 43 37 39 37 38 38 37 38 37 36 35 40 33 38 36 37 37 33 35
21 27 29 30 39 56 56 53 55 60 74 14 28 32 35 40 40 39 41 41 42 42 40 36 39 41 40 45 41 42 48 46
17 22 21 21 28 42 47 48 54 51 41 27 31 32 37 40 41 40 41 38 39 39 42 41 41 44 44 39 36 40 42 46

GFSFLT2_700_spd_132.txt.gz
Wind_Speed
18 24 23 21 19 17 17 15 15 14 12 11 10 10 9 8 7 7 7 8 8 8 7 7 7 6 5 5 3 6 8 8
19 23 24 23 20 19 19 18 17 16 15 14 13 12 11 10 10 9 9 9 9 9 8 8 8 7 6 6 7 8 9 12
23 24 25 24 22 21 21 20 20 19 18 17 16 14 12 11 10 10 10 10 10 10 10 9 9 8 7 7 8 7 11 7
27 27 29 28 27 25 24 24 23 22 20 18 17 16 14 13 12 12 12 11 10 10 10 10 10 9 8 8 9 8 10 8
19 29 30 33 31 30 28 28 25 24 22 20 19 18 17 16 14 13 11 11 12 10 9 10 10 11 10 10 10 9 8 11
11 22 31 30 33 35 32 31 29 27 25 22 22 21 19 17 15 13 12 12 12 11 11 11 11 12 10 11 10 7 8 10
22 17 25 27 37 34 35 35 33 30 29 26 24 23 21 18 17 16 13 13 13 11 12 12 11 12 12 10 13 12 14 12
32 27 24 31 31 41 37 39 35 33 32 29 28 25 23 22 20 17 15 13 13 12 11 9 11 11 11 13 13 13 14 12
34 33 29 28 40 35 43 42 42 37 34 32 30 28 27 25 22 19 16 14 14 12 11 9 10 9 10 11 11 13 14 16
28 31 33 31 35 40 39 49 46 43 39 36 34 31 29 28 25 22 18 17 15 14 12 10 9 10 9 11 12 14 15 16
41 38 41 43 41 39 42 45 49 50 43 40 37 34 33 32 28 24 21 19 15 14 14 12 11 11 11 11 13 14 14 15
48 47 49 49 46 48 43 44 49 49 50 46 39 38 36 34 31 27 24 21 19 18 16 15 14 13 14 14 13 14 13 14
49 48 57 56 52 50 49 46 45 49 55 49 44 41 40 39 34 30 29 26 24 21 20 19 18 17 18 17 15 15 14 14
52 51 52 54 49 51 55 53 45 45 52 53 49 46 44 41 38 35 33 30 29 27 26 24 23 22 21 20 20 19 18 17
47 49 52 49 55 55 55 60 52 47 52 57 55 51 46 43 41 40 37 35 33 31 29 28 27 25 25 24 24 23 24 22
45 47 49 45 46 62 55 58 48 53 55 59 58 53 48 47 46 44 42 39 36 34 33 30 29 27 28 28 27 27 26 28
32 38 42 39 40 58 63 59 61 50 53 57 62 56 50 52 47 44 42 38 34 34 32 30 29 28 29 29 29 29 30 31
25 27 32 30 35 46 65 59 60 50 48 52 65 57 52 54 50 42 38 35 33 31 32 32 29 29 31 32 33 36 34 35
25 25 27 28 31 38 54 61 57 50 50 58 55 45 47 42 57 44 37 35 34 34 35 35 34 34 34 34 35 33 32 33
24 23 22 24 26 32 37 49 60 62 47 73 46 45 52 71 12 39 34 35 35 34 35 35 38 38 39 37 38 37 35 35